M I D A S
Marine Information and Data Acquisition System
Tripno 2186 of the Zeeleeuw from 2011-09-20 07:02:04 to 2011-09-20 14:33:28
Back to CruiseResearch ActivitiesStationsMapUnderway DataData graphs

EquipmentUnitsComment
TimeDGPSUTC
LatitudeDGPSDM.mWGS84
LongitudeDGPSDM.mWGS84
TemperatureSBE03/SBE38deg celciusITS90
ConductivitySBE21S/mITS90
SalinitySBE21 Practical Salinity Units
ChlorophylAChelsea fluorimeterg/lCalibrated in Aceton
Missing or incorrect values are displayed as -999
Sea surface data collected by the RV Zeeleeuw from 2011-09-20 07:08:50 to 2011-09-20 15:36:53
                                                                                    Next 1000 lines
Time Latitude Longitude Temperature Conductivity Salinity ChlorophylA
2011-09-20 07:08:59 51°13.635 2°56.015 19.5799 0.061423 0.346439 -3.020363
2011-09-20 07:09:04 51°13.636 2°56.012 19.5716 0.061423 0.346446 -3.020363
2011-09-20 07:09:09 51°13.637 2°56.008 19.5683 0.061423 0.346446 -3.020363
2011-09-20 07:09:14 51°13.638 2°56.004 19.5809 0.061423 0.346439 -3.020363
2011-09-20 07:09:20 51°13.64 2°55.997 19.5798 0.061423 0.346439 -3.020363
2011-09-20 07:09:26 51°13.642 2°55.99 19.5737 0.061423 0.346446 -3.020363
2011-09-20 07:09:31 51°13.644 2°55.983 19.5759 0.061423 0.346446 -3.020363
2011-09-20 07:09:37 51°13.647 2°55.974 19.5883 0.061423 0.346446 -3.020363
2011-09-20 07:09:42 51°13.649 2°55.966 19.5867 0.061423 0.346446 -3.020363
2011-09-20 07:09:48 51°13.651 2°55.956 19.6037 0.061423 0.346446 -3.020363
2011-09-20 07:09:53 51°13.653 2°55.947 19.6143 0.061423 0.346446 -3.020363
2011-09-20 07:09:58 51°13.656 2°55.938 19.6022 0.061423 0.346446 -3.020363
2011-09-20 07:10:02 51°13.657 2°55.931 19.6191 0.061423 0.346452 -3.020363
2011-09-20 07:10:08 51°13.66 2°55.92 19.6173 0.061423 0.346452 -3.020363
2011-09-20 07:10:13 51°13.662 2°55.911 19.606 0.061423 0.346452 -3.020363
2011-09-20 07:10:18 51°13.664 2°55.902 19.5991 0.061423 0.346452 -3.020363
2011-09-20 07:10:23 51°13.667 2°55.893 19.5999 0.061423 0.346452 -3.020363
2011-09-20 07:10:28 51°13.669 2°55.884 19.61 0.061423 0.346452 -3.020363
2011-09-20 07:10:33 51°13.671 2°55.874 19.6134 0.061423 0.346459 -3.020363
2011-09-20 07:10:38 51°13.673 2°55.865 19.6153 0.061423 0.346452 -3.020363
2011-09-20 07:10:42 51°13.675 2°55.858 19.6192 0.061423 0.346459 -3.020363
2011-09-20 07:10:48 51°13.677 2°55.847 19.6171 0.061423 0.346452 -3.020363
2011-09-20 07:10:53 51°13.679 2°55.838 19.6066 0.061423 0.346452 -3.020363
2011-09-20 07:10:58 51°13.681 2°55.83 19.6042 0.061423 0.346459 -3.020363
2011-09-20 07:11:02 51°13.682 2°55.823 19.6039 0.061423 0.346459 -3.020363
2011-09-20 07:11:08 51°13.684 2°55.813 19.6112 0.061423 0.346459 -3.020363
2011-09-20 07:11:13 51°13.686 2°55.804 19.6151 0.061423 0.346465 -3.020363
2011-09-20 07:11:18 51°13.687 2°55.796 19.6119 0.061423 0.346465 -3.020363
2011-09-20 07:11:22 51°13.688 2°55.789 19.6124 0.061423 0.346465 -3.020363
2011-09-20 07:11:28 51°13.69 2°55.779 19.6157 0.061423 0.346465 -3.020363
2011-09-20 07:11:33 51°13.691 2°55.771 19.624 0.061423 0.346471 -3.020363
2011-09-20 07:11:38 51°13.691 2°55.763 19.6219 0.061423 0.346465 -3.020363
2011-09-20 07:11:42 51°13.692 2°55.757 19.6239 0.061423 0.346471 -3.020363
2011-09-20 07:11:48 51°13.693 2°55.749 19.6238 0.061423 0.346465 -3.020363
2011-09-20 07:11:53 51°13.693 2°55.744 19.6387 0.061423 0.346465 -3.020363
2011-09-20 07:11:58 51°13.693 2°55.741 19.6214 0.061423 0.346471 -3.020363
2011-09-20 07:12:02 51°13.694 2°55.739 19.6245 0.061423 0.346471 -3.020363
2011-09-20 07:12:07 51°13.694 2°55.737 19.6186 0.061423 0.346471 -3.020363
2011-09-20 07:12:12 51°13.694 2°55.736 19.6183 0.061423 0.346478 -3.020363
2011-09-20 07:12:18 51°13.695 2°55.735 19.6168 0.061423 0.346478 -3.020363
2011-09-20 07:12:22 51°13.695 2°55.735 19.6173 0.061423 0.346478 -3.020363
2011-09-20 07:12:26 51°13.695 2°55.735 19.6178 0.061423 0.346484 -3.020363
2011-09-20 07:12:31 51°13.696 2°55.735 19.6219 0.061423 0.346478 -3.020363
2011-09-20 07:12:36 51°13.697 2°55.735 19.6203 0.061423 0.346484 -3.020363
2011-09-20 07:12:41 51°13.698 2°55.736 19.624 0.061423 0.346484 -3.020363
2011-09-20 07:12:46 51°13.699 2°55.737 19.6263 0.061423 0.346484 -3.020363
2011-09-20 07:12:50 51°13.7 2°55.737 19.6335 0.061423 0.346484 -3.020363
2011-09-20 07:12:55 51°13.701 2°55.738 19.6349 0.061423 0.346484 -3.020363
2011-09-20 07:13:00 51°13.703 2°55.739 19.6407 0.061423 0.346491 -3.020363
2011-09-20 07:13:05 51°13.705 2°55.74 19.6438 0.061423 0.346491 -3.020363
2011-09-20 07:13:10 51°13.707 2°55.741 19.6427 0.061423 0.346491 -3.020363
2011-09-20 07:13:14 51°13.709 2°55.741 19.636 0.061423 0.346491 -3.020363
2011-09-20 07:13:19 51°13.711 2°55.742 19.6489 0.061423 0.346491 -3.020363
2011-09-20 07:13:25 51°13.714 2°55.742 19.6453 0.061423 0.346491 -3.020363
2011-09-20 07:13:30 51°13.718 2°55.742 19.66 0.061423 0.346484 -3.020363
2011-09-20 07:13:34 51°13.72 2°55.741 19.6588 0.061423 0.346484 -3.020363
2011-09-20 07:13:39 51°13.724 2°55.74 19.6623 0.061423 0.346491 -3.020363
2011-09-20 07:13:44 51°13.728 2°55.738 19.6581 0.061423 0.346491 -3.020363
2011-09-20 07:13:50 51°13.734 2°55.734 19.6542 0.061423 0.346491 -3.020363
2011-09-20 07:13:55 51°13.738 2°55.729 19.6494 0.061423 0.346491 -3.020363
2011-09-20 07:14:01 51°13.744 2°55.723 19.6269 0.061423 0.346491 -3.020363
2011-09-20 07:14:06 51°13.75 2°55.718 19.6111 0.061423 0.346491 -3.020363
2011-09-20 07:14:11 51°13.757 2°55.711 19.5734 0.061423 0.346484 -3.020363
2011-09-20 07:14:17 51°13.765 2°55.702 19.5665 0.061423 0.346478 -3.020363
2011-09-20 07:14:22 51°13.772 2°55.695 19.5766 0.061423 0.346478 -3.020363
2011-09-20 07:14:27 51°13.78 2°55.686 19.571 0.061423 0.346478 -3.020363
2011-09-20 07:14:32 51°13.789 2°55.678 19.5699 0.061423 0.346478 -3.020363
2011-09-20 07:14:38 51°13.799 2°55.668 19.5208 0.061423 0.346478 -3.020363
2011-09-20 07:14:42 51°13.807 2°55.661 19.5349 0.061423 0.346471 -3.020363
2011-09-20 07:14:48 51°13.818 2°55.65 19.5235 0.061423 0.346471 -3.020363
2011-09-20 07:14:53 51°13.828 2°55.642 19.5461 0.061423 0.346471 -3.020363
2011-09-20 07:14:58 51°13.839 2°55.634 19.5606 0.061423 0.346471 -3.020363
2011-09-20 07:15:03 51°13.849 2°55.625 19.5621 0.061423 0.346478 -3.020363
2011-09-20 07:15:08 51°13.86 2°55.617 19.5791 0.061423 0.346478 -3.020363
2011-09-20 07:15:13 51°13.872 2°55.608 19.5791 0.061423 0.346484 -3.020363
2011-09-20 07:15:18 51°13.884 2°55.599 19.5787 0.061423 0.346484 -3.020363
2011-09-20 07:15:22 51°13.893 2°55.593 19.5931 0.061423 0.346484 -3.020363
2011-09-20 07:15:28 51°13.907 2°55.582 19.5773 0.061423 0.346491 -3.020363
2011-09-20 07:15:32 51°13.917 2°55.574 19.5794 0.061423 0.346484 -3.020363
2011-09-20 07:15:38 51°13.932 2°55.563 19.584 0.061423 0.346491 -3.020363
2011-09-20 07:15:42 51°13.942 2°55.556 19.5586 0.061423 0.346491 -3.020363
2011-09-20 07:15:48 51°13.957 2°55.545 19.5659 0.061423 0.346491 -3.020363
2011-09-20 07:15:52 51°13.968 2°55.538 19.5984 0.061423 0.346491 -3.020363
2011-09-20 07:15:58 51°13.983 2°55.526 19.5838 0.061423 0.346497 -3.020363
2011-09-20 07:16:02 51°13.994 2°55.519 19.6147 0.061423 0.346497 -3.020363
2011-09-20 07:16:07 51°14.007 2°55.509 19.5996 0.061423 0.346497 -3.020363
2011-09-20 07:16:12 51°14.021 2°55.5 19.5902 0.061423 0.346497 -3.020363
2011-09-20 07:16:17 51°14.034 2°55.49 19.6088 0.061423 0.346503 -3.020363
2011-09-20 07:16:22 51°14.047 2°55.48 19.6102 0.061423 0.346503 -3.020363
2011-09-20 07:16:27 51°14.061 2°55.47 19.6129 0.061423 0.346503 -3.020363
2011-09-20 07:16:32 51°14.074 2°55.459 19.5753 0.061423 0.34651 -3.020363
2011-09-20 07:16:37 51°14.088 2°55.449 19.5831 0.061423 0.346503 -3.020363
2011-09-20 07:16:42 51°14.101 2°55.438 19.6089 0.061423 0.346503 -3.020363
2011-09-20 07:16:47 51°14.114 2°55.427 19.5758 0.061423 0.346503 -3.020363
2011-09-20 07:16:52 51°14.128 2°55.417 19.6021 0.061423 0.346503 -3.020363
2011-09-20 07:16:57 51°14.141 2°55.406 19.5859 0.061423 0.346503 -3.020363
2011-09-20 07:17:02 51°14.155 2°55.396 19.6088 0.061423 0.346503 -3.020363
2011-09-20 07:17:06 51°14.165 2°55.387 19.6296 0.061423 0.346503 -3.020363
2011-09-20 07:17:11 51°14.179 2°55.377 19.601 0.061423 0.34651 -3.020363
2011-09-20 07:17:17 51°14.195 2°55.363 19.5789 0.061423 0.346503 -3.020363
2011-09-20 07:17:22 51°14.209 2°55.352 19.6285 0.061423 0.346503 -3.020363
2011-09-20 07:17:27 51°14.223 2°55.339 19.5817 0.061423 0.34651 -3.020363
2011-09-20 07:17:32 51°14.237 2°55.327 19.5781 0.061423 0.346503 -3.020363
2011-09-20 07:17:37 51°14.251 2°55.315 19.5852 0.061423 0.346503 -3.020363
2011-09-20 07:17:42 51°14.265 2°55.303 19.6084 0.061423 0.34651 -3.020363
2011-09-20 07:17:47 51°14.279 2°55.29 19.577 0.061423 0.346503 -3.020363
2011-09-20 07:17:52 51°14.294 2°55.278 19.6122 0.061423 0.346503 -3.020363
2011-09-20 07:17:57 51°14.308 2°55.265 19.5774 0.061423 0.34651 -3.020363
2011-09-20 07:18:02 51°14.322 2°55.252 19.5903 0.061423 0.34651 -3.020363
2011-09-20 07:18:07 51°14.336 2°55.238 19.547 0.061423 0.34651 -3.020363
2011-09-20 07:18:13 51°14.353 2°55.222 19.5993 0.061423 0.34651 -3.020363
2011-09-20 07:18:18 51°14.367 2°55.208 19.5268 0.061423 0.346516 -3.020363
2011-09-20 07:18:22 51°14.379 2°55.197 19.5732 0.061423 0.346516 -3.020363
2011-09-20 07:18:27 51°14.394 2°55.184 19.5503 0.061423 0.34651 -3.020363
2011-09-20 07:18:32 51°14.408 2°55.172 19.5894 0.061423 0.34651 -3.020363
2011-09-20 07:18:37 51°14.423 2°55.158 19.5689 0.061423 0.34651 -3.020363
2011-09-20 07:18:42 51°14.438 2°55.145 19.5539 0.061423 0.34651 -3.020363
2011-09-20 07:18:46 51°14.45 2°55.134 19.5972 0.061423 0.34651 -3.020363
2011-09-20 07:18:51 51°14.464 2°55.121 19.5668 0.061423 0.34651 -3.020363
2011-09-20 07:18:56 51°14.479 2°55.108 19.5713 0.061423 0.346516 -3.020363
2011-09-20 07:19:01 51°14.495 2°55.095 19.574 0.061423 0.346516 -3.020363
2011-09-20 07:19:06 51°14.509 2°55.081 19.5587 0.061423 0.346516 -3.020363
2011-09-20 07:19:10 51°14.522 2°55.07 19.5609 0.061423 0.346516 -3.020363
2011-09-20 07:19:15 51°14.537 2°55.056 19.5384 0.061423 0.346516 -3.020363
2011-09-20 07:19:20 51°14.552 2°55.042 19.5749 0.061423 0.346516 -3.020363
2011-09-20 07:19:25 51°14.567 2°55.028 19.5685 0.061423 0.346516 -3.020363
2011-09-20 07:19:30 51°14.582 2°55.013 19.5756 0.061423 0.346516 -3.020363
2011-09-20 07:19:34 51°14.594 2°55.001 19.5739 0.061423 0.346523 -3.020363
2011-09-20 07:19:39 51°14.608 2°54.984 19.5059 0.061423 0.346523 -3.020363
2011-09-20 07:19:44 51°14.622 2°54.968 19.5172 0.061423 0.346523 -3.020363
2011-09-20 07:19:50 51°14.64 2°54.948 19.5646 0.061423 0.346523 -3.020363
2011-09-20 07:19:54 51°14.651 2°54.935 19.5335 0.061423 0.346516 -3.020363
2011-09-20 07:19:59 51°14.665 2°54.918 19.5465 0.061423 0.346516 -3.020363
2011-09-20 07:20:04 51°14.68 2°54.903 19.4699 0.061423 0.346523 -3.020363
2011-09-20 07:20:09 51°14.694 2°54.887 19.5413 0.061423 0.346516 -3.020363
2011-09-20 07:20:14 51°14.709 2°54.871 19.5358 0.061423 0.346523 -3.020363
2011-09-20 07:20:19 51°14.723 2°54.856 19.4892 0.061423 0.346523 -3.020363
2011-09-20 07:20:24 51°14.737 2°54.84 19.5456 0.061423 0.346523 -3.020363
2011-09-20 07:20:30 51°14.755 2°54.821 19.4907 0.061423 0.346529 -3.020363
2011-09-20 07:20:34 51°14.766 2°54.807 19.5412 0.061423 0.346523 -3.020363
2011-09-20 07:20:39 51°14.78 2°54.792 19.5268 0.061423 0.346529 -3.020363
2011-09-20 07:20:44 51°14.794 2°54.774 19.5053 0.061423 0.346529 -3.020363
2011-09-20 07:20:50 51°14.811 2°54.755 19.4721 0.061423 0.346529 -3.020363
2011-09-20 07:20:54 51°14.822 2°54.742 19.5061 0.061423 0.346523 -3.020363
2011-09-20 07:20:59 51°14.835 2°54.725 19.5166 0.061423 0.346529 -3.020363
2011-09-20 07:21:05 51°14.852 2°54.706 19.5233 0.061423 0.346523 -3.020363
2011-09-20 07:21:09 51°14.864 2°54.693 19.4956 0.061423 0.346523 -3.020363
2011-09-20 07:21:14 51°14.878 2°54.678 19.516 0.061423 0.346523 -3.020363
2011-09-20 07:21:19 51°14.892 2°54.662 19.475 0.061423 0.346523 -3.020363
2011-09-20 07:21:24 51°14.906 2°54.645 19.5262 0.061423 0.346523 -3.020363
2011-09-20 07:21:30 51°14.923 2°54.626 19.5172 0.061423 0.346529 -3.020363
2011-09-20 07:21:34 51°14.934 2°54.613 19.4658 0.061423 0.346523 -3.020363
2011-09-20 07:21:39 51°14.948 2°54.596 19.5003 0.061423 0.346523 -3.020363
2011-09-20 07:21:45 51°14.964 2°54.576 19.5147 0.061423 0.346529 -3.020363
2011-09-20 07:21:49 51°14.975 2°54.562 19.5068 0.061423 0.346529 -3.020363
2011-09-20 07:21:54 51°14.989 2°54.545 19.4716 0.061423 0.346529 -3.020363
2011-09-20 07:21:59 51°15.003 2°54.529 19.4745 0.061423 0.346523 -3.020363
2011-09-20 07:22:04 51°15.017 2°54.513 19.4983 0.061423 0.346523 -3.020363
2011-09-20 07:22:10 51°15.034 2°54.496 19.4601 0.061423 0.346523 -3.020363
2011-09-20 07:22:14 51°15.046 2°54.484 19.4672 0.061423 0.346523 -3.020363
2011-09-20 07:22:19 51°15.061 2°54.471 19.4908 0.061423 0.346523 -3.020363
2011-09-20 07:22:25 51°15.08 2°54.456 19.4689 0.061423 0.346523 -3.020363
2011-09-20 07:22:30 51°15.096 2°54.445 19.4774 0.061423 0.346523 -3.020363
2011-09-20 07:22:34 51°15.108 2°54.436 19.5041 0.061423 0.346529 -3.020363
2011-09-20 07:22:39 51°15.125 2°54.426 19.5076 0.061423 0.346529 -3.020363
2011-09-20 07:22:44 51°15.141 2°54.416 19.4895 0.061423 0.346529 -3.020363
2011-09-20 07:22:50 51°15.16 2°54.404 19.5155 0.061423 0.346529 -3.020363
2011-09-20 07:22:54 51°15.173 2°54.397 19.4814 0.061423 0.346529 -3.020363
2011-09-20 07:22:58 51°15.186 2°54.389 19.4786 0.061423 0.346535 -3.020363
2011-09-20 07:23:04 51°15.205 2°54.377 19.4837 0.061423 0.346535 -3.020363
2011-09-20 07:23:09 51°15.221 2°54.367 19.4923 0.061423 0.346535 -3.020363
2011-09-20 07:23:14 51°15.238 2°54.358 19.4692 0.061423 0.346535 -3.020363
2011-09-20 07:23:19 51°15.254 2°54.348 19.472 0.061423 0.346535 -3.020363
2011-09-20 07:23:24 51°15.27 2°54.34 19.4224 0.061423 0.346535 -3.020363
2011-09-20 07:23:29 51°15.287 2°54.334 19.4486 0.061423 0.346523 -3.020363
2011-09-20 07:23:34 51°15.304 2°54.331 19.4651 0.061423 0.346523 -3.020363
2011-09-20 07:23:39 51°15.321 2°54.332 19.4455 0.061423 0.346529 -3.020363
2011-09-20 07:23:44 51°15.338 2°54.332 19.459 0.061423 0.346529 -3.020363
2011-09-20 07:23:50 51°15.359 2°54.335 19.469 0.061423 0.346529 -3.020363
2011-09-20 07:23:54 51°15.372 2°54.337 19.4734 0.061423 0.346535 -3.020363
2011-09-20 07:23:59 51°15.39 2°54.34 19.4875 0.061423 0.346542 -3.020363
2011-09-20 07:24:05 51°15.411 2°54.344 19.4897 0.061423 0.346542 -3.020363
2011-09-20 07:24:09 51°15.424 2°54.347 19.4903 0.061423 0.346542 -3.020363
2011-09-20 07:24:15 51°15.445 2°54.352 19.4897 0.061423 0.346542 -3.020363
2011-09-20 07:24:19 51°15.459 2°54.356 19.4685 0.061423 0.346542 -3.020363
2011-09-20 07:24:24 51°15.476 2°54.36 19.472 0.061423 0.346542 -3.020363
2011-09-20 07:24:30 51°15.497 2°54.367 19.4748 0.061423 0.346542 -3.020363
2011-09-20 07:24:34 51°15.51 2°54.371 19.4881 0.061423 0.346542 -3.020363
2011-09-20 07:24:39 51°15.527 2°54.379 19.4842 0.061423 0.346542 -3.020363
2011-09-20 07:24:44 51°15.544 2°54.386 19.5037 0.061423 0.346542 -3.020363
2011-09-20 07:24:50 51°15.564 2°54.395 19.4917 0.061423 0.346542 -3.020363
2011-09-20 07:24:54 51°15.578 2°54.402 19.495 0.061423 0.346555 -3.020363
2011-09-20 07:24:59 51°15.594 2°54.409 19.4926 0.061423 0.346548 -3.020363
2011-09-20 07:25:04 51°15.611 2°54.417 19.4697 0.061423 0.346555 -3.020363
2011-09-20 07:25:10 51°15.631 2°54.426 19.5029 0.061423 0.346548 -3.020363
2011-09-20 07:25:14 51°15.645 2°54.434 19.4594 0.061423 0.346555 -3.020363
2011-09-20 07:25:19 51°15.662 2°54.441 19.5028 0.061423 0.346555 -3.020363
2011-09-20 07:25:24 51°15.678 2°54.451 19.4835 0.061423 0.346548 -3.020363
2011-09-20 07:25:29 51°15.695 2°54.459 19.5137 0.061423 0.346548 -3.020363
2011-09-20 07:25:34 51°15.711 2°54.469 19.4816 0.061423 0.346555 -3.020363
2011-09-20 07:25:39 51°15.728 2°54.478 19.4976 0.061423 0.346555 -3.020363
2011-09-20 07:25:44 51°15.744 2°54.487 19.5001 0.061423 0.346561 -3.020363
2011-09-20 07:25:50 51°15.764 2°54.498 19.4936 0.061423 0.346561 -3.020363
2011-09-20 07:25:54 51°15.778 2°54.505 19.4965 0.061423 0.346561 -3.020363
2011-09-20 07:25:59 51°15.794 2°54.516 19.4994 0.061423 0.346555 -3.020363
2011-09-20 07:26:05 51°15.814 2°54.527 19.5101 0.061423 0.346555 -3.020363
2011-09-20 07:26:09 51°15.827 2°54.537 19.5031 0.061423 0.346555 -3.020363
2011-09-20 07:26:14 51°15.843 2°54.548 19.5164 0.061423 0.346561 -3.020363
2011-09-20 07:26:19 51°15.86 2°54.558 19.5275 0.061423 0.346561 -3.020363
2011-09-20 07:26:25 51°15.88 2°54.57 19.5501 0.061423 0.346567 -3.020363
2011-09-20 07:26:30 51°15.896 2°54.577 19.5458 0.061423 0.346574 -3.020363
2011-09-20 07:26:34 51°15.91 2°54.581 19.5719 0.061423 0.34658 -3.020363
2011-09-20 07:26:39 51°15.927 2°54.585 19.5583 0.061423 0.346587 -3.020363
2011-09-20 07:26:45 51°15.948 2°54.585 19.5372 0.061423 0.346593 -3.020363
2011-09-20 07:26:50 51°15.965 2°54.584 19.5378 0.061423 0.346593 -3.020363
2011-09-20 07:26:54 51°15.978 2°54.581 19.5273 0.061423 0.346593 -3.020363
2011-09-20 07:26:59 51°15.995 2°54.577 19.5462 0.061423 0.346587 -3.020363
2011-09-20 07:27:04 51°16.012 2°54.573 19.5301 0.061423 0.346587 -3.020363
2011-09-20 07:27:10 51°16.032 2°54.565 19.5486 0.061423 0.346587 -3.020363
2011-09-20 07:27:14 51°16.045 2°54.559 19.5286 0.061423 0.346587 -3.020363
2011-09-20 07:27:19 51°16.062 2°54.55 19.4666 0.061423 0.346587 -3.020363
2011-09-20 07:27:24 51°16.078 2°54.542 19.4436 0.061423 0.346593 -3.020363
2011-09-20 07:27:29 51°16.095 2°54.535 19.4538 0.061423 0.346574 -3.020363
2011-09-20 07:27:34 51°16.112 2°54.532 19.5032 0.061423 0.346567 -3.020363
2011-09-20 07:27:39 51°16.129 2°54.531 19.4813 0.061423 0.346574 -3.020363
2011-09-20 07:27:44 51°16.146 2°54.528 19.5113 0.061423 0.34658 -3.020363
2011-09-20 07:27:49 51°16.163 2°54.527 19.4977 0.061423 0.34658 -3.020363
2011-09-20 07:27:54 51°16.179 2°54.524 19.5265 0.061423 0.346587 -3.020363
2011-09-20 07:27:59 51°16.195 2°54.52 19.5296 0.061423 0.346593 -3.020363
2011-09-20 07:28:04 51°16.21 2°54.516 19.5402 0.061423 0.346593 -3.020363
2011-09-20 07:28:10 51°16.226 2°54.511 19.5468 0.061423 0.346599 -3.020363
2011-09-20 07:28:14 51°16.236 2°54.507 19.5468 0.061423 0.346599 -3.020363
2011-09-20 07:28:19 51°16.249 2°54.501 19.5388 0.061423 0.346599 -3.020363
2011-09-20 07:28:25 51°16.262 2°54.495 19.5299 0.061423 0.346599 -3.020363
2011-09-20 07:28:29 51°16.27 2°54.49 19.5321 0.061423 0.346599 -3.020363
2011-09-20 07:28:34 51°16.28 2°54.484 19.5488 0.061423 0.346606 -3.020363
2011-09-20 07:28:39 51°16.289 2°54.478 19.5539 0.061423 0.346606 -3.020363
2011-09-20 07:28:44 51°16.296 2°54.472 19.55 0.061423 0.346612 -3.020363
2011-09-20 07:28:50 51°16.305 2°54.465 19.5415 0.061423 0.346612 -3.020363
2011-09-20 07:28:54 51°16.31 2°54.46 19.546 0.061423 0.346606 -3.020363
2011-09-20 07:28:59 51°16.315 2°54.455 19.5409 0.061423 0.346612 -3.020363
2011-09-20 07:29:05 51°16.321 2°54.449 19.5397 0.061423 0.346612 -3.020363
2011-09-20 07:29:10 51°16.325 2°54.444 19.5518 0.061423 0.346612 -3.020363
2011-09-20 07:29:14 51°16.328 2°54.441 19.5501 0.061423 0.346612 -3.020363
2011-09-20 07:29:19 51°16.332 2°54.437 19.5493 0.061423 0.346612 -3.020363
2011-09-20 07:29:24 51°16.335 2°54.434 19.5219 0.061423 0.346612 -3.020363
2011-09-20 07:29:30 51°16.338 2°54.431 19.5223 0.061423 0.346612 -3.020363
2011-09-20 07:29:34 51°16.339 2°54.429 19.5497 0.061423 0.346612 -3.020363
2011-09-20 07:29:39 51°16.341 2°54.428 19.5132 0.061423 0.346619 -3.020363
2011-09-20 07:29:44 51°16.343 2°54.428 19.5125 0.061423 0.346619 -3.020363
2011-09-20 07:29:49 51°16.344 2°54.428 19.5291 0.061423 0.346619 -3.020363
2011-09-20 07:29:54 51°16.345 2°54.429 19.5541 0.061423 0.346619 -3.020363
2011-09-20 07:29:59 51°16.346 2°54.429 19.5555 0.061423 0.346612 -3.020363
2011-09-20 07:30:04 51°16.347 2°54.43 19.5508 0.061423 0.346612 -3.020363
2011-09-20 07:30:09 51°16.348 2°54.431 19.5433 0.061423 0.346606 -3.020363
2011-09-20 07:30:14 51°16.349 2°54.432 19.5362 0.061423 0.346606 -3.020363
2011-09-20 07:30:19 51°16.35 2°54.433 19.5412 0.061423 0.346606 -3.020363
2011-09-20 07:30:24 51°16.351 2°54.434 19.5575 0.061423 0.346606 -3.020363
2011-09-20 07:30:30 51°16.352 2°54.435 19.5549 0.061423 0.346606 -3.020363
2011-09-20 07:30:34 51°16.353 2°54.436 19.5483 0.061423 0.346606 -3.020363
2011-09-20 07:30:39 51°16.354 2°54.437 19.5635 0.061423 0.346606 -3.020363
2011-09-20 07:30:44 51°16.355 2°54.438 19.5618 0.061423 0.346612 -3.020363
2011-09-20 07:30:50 51°16.357 2°54.439 19.5558 0.061423 0.346612 -3.020363
2011-09-20 07:30:54 51°16.358 2°54.44 19.5605 0.061423 0.346612 -3.020363
2011-09-20 07:30:59 51°16.359 2°54.441 19.5584 0.061423 0.346619 -3.020363
2011-09-20 07:31:05 51°16.36 2°54.443 19.5498 0.061423 0.346619 -3.020363
2011-09-20 07:31:09 51°16.361 2°54.444 19.556 0.061423 0.346625 -3.020363
2011-09-20 07:31:14 51°16.362 2°54.445 19.5603 0.061423 0.346619 -3.020363
2011-09-20 07:31:19 51°16.364 2°54.446 19.5623 0.061423 0.346619 -3.020363
2011-09-20 07:31:24 51°16.365 2°54.448 19.5489 0.061423 0.346631 -3.020363
2011-09-20 07:31:30 51°16.366 2°54.449 19.5721 0.061423 0.346625 -3.020363
2011-09-20 07:31:34 51°16.367 2°54.45 19.5604 0.061423 0.346631 -3.020363
2011-09-20 07:31:39 51°16.368 2°54.452 19.561 0.061423 0.346631 -3.020363
2011-09-20 07:31:44 51°16.369 2°54.453 19.5408 0.061423 0.346638 -3.020363
2011-09-20 07:31:50 51°16.371 2°54.455 19.541 0.061423 0.346638 -3.020363
2011-09-20 07:31:54 51°16.371 2°54.456 19.5633 0.061423 0.346638 -3.020363
2011-09-20 07:31:59 51°16.372 2°54.457 19.5648 0.061423 0.346638 -3.020363
2011-09-20 07:32:04 51°16.373 2°54.458 19.5627 0.061423 0.346638 -3.020363
2011-09-20 07:32:09 51°16.374 2°54.459 19.5717 0.061423 0.346638 -3.020363
2011-09-20 07:32:14 51°16.376 2°54.461 19.5723 0.061423 0.346644 -3.020363
2011-09-20 07:32:19 51°16.377 2°54.462 19.5688 0.061423 0.346644 -3.020363
2011-09-20 07:32:24 51°16.378 2°54.464 19.5622 0.061423 0.346644 -3.020363
2011-09-20 07:32:29 51°16.379 2°54.465 19.5649 0.061423 0.346644 -3.020363
2011-09-20 07:32:34 51°16.38 2°54.466 19.5804 0.061423 0.346644 -3.020363
2011-09-20 07:32:39 51°16.381 2°54.468 19.5754 0.061423 0.346644 -3.020363
2011-09-20 07:32:45 51°16.383 2°54.469 19.5668 0.061423 0.346644 -3.020363
2011-09-20 07:32:49 51°16.384 2°54.47 19.5716 0.061423 0.346644 -3.020363
2011-09-20 07:32:54 51°16.385 2°54.471 19.5707 0.061423 0.346651 -3.020363
2011-09-20 07:32:59 51°16.386 2°54.473 19.5711 0.061423 0.346651 -3.020363
2011-09-20 07:33:05 51°16.387 2°54.474 19.5778 0.061423 0.346651 -3.020363
2011-09-20 07:33:10 51°16.388 2°54.475 19.5763 0.061423 0.346651 -3.020363
2011-09-20 07:33:14 51°16.389 2°54.477 19.5636 0.061423 0.346651 -3.020363
2011-09-20 07:33:18 51°16.39 2°54.477 19.5807 0.061423 0.346651 -3.020363
2011-09-20 07:33:25 51°16.392 2°54.479 19.5824 0.061423 0.346657 -3.020363
2011-09-20 07:33:29 51°16.392 2°54.48 19.5815 0.061423 0.346657 -3.020363
2011-09-20 07:33:34 51°16.394 2°54.481 19.5745 0.061423 0.346657 -3.020363
2011-09-20 07:33:39 51°16.395 2°54.483 19.5814 0.061423 0.346657 -3.020363
2011-09-20 07:33:44 51°16.396 2°54.484 19.5764 0.061423 0.346657 -3.020363
2011-09-20 07:33:50 51°16.397 2°54.485 19.5855 0.061423 0.346657 -3.020363
2011-09-20 07:33:54 51°16.398 2°54.486 19.5795 0.061423 0.346663 -3.020363
2011-09-20 07:33:59 51°16.399 2°54.487 19.5748 0.061423 0.346663 -3.020363
2011-09-20 07:34:04 51°16.401 2°54.489 19.5833 0.061423 0.346663 -3.020363
2011-09-20 07:34:09 51°16.402 2°54.49 19.5844 0.061423 0.346663 -3.020363
2011-09-20 07:34:14 51°16.403 2°54.491 19.5852 0.061423 0.34667 -3.020363
2011-09-20 07:34:19 51°16.404 2°54.492 19.5904 0.061423 0.34667 -3.020363
2011-09-20 07:34:24 51°16.405 2°54.494 19.5864 0.061423 0.34667 -3.020363
2011-09-20 07:34:29 51°16.406 2°54.495 19.5714 0.061423 0.346663 -3.020363
2011-09-20 07:34:34 51°16.407 2°54.496 19.5612 0.061423 0.346676 -3.020363
2011-09-20 07:34:39 51°16.409 2°54.497 19.5904 0.061423 0.346676 -3.020363
2011-09-20 07:34:44 51°16.41 2°54.498 19.5976 0.061423 0.346676 -3.020363
2011-09-20 07:34:49 51°16.411 2°54.5 19.5931 0.061423 0.346676 -3.020363
2011-09-20 07:34:54 51°16.412 2°54.501 19.6005 0.061423 0.346676 -3.020363
2011-09-20 07:34:59 51°16.413 2°54.502 19.6023 0.061423 0.346676 -3.020363
2011-09-20 07:35:04 51°16.415 2°54.504 19.5918 0.061423 0.346676 -3.020363
2011-09-20 07:35:10 51°16.416 2°54.505 19.5859 0.061423 0.346683 -3.020363
2011-09-20 07:35:14 51°16.417 2°54.506 19.5882 0.061423 0.346676 -3.020363
2011-09-20 07:35:19 51°16.418 2°54.508 19.5905 0.061423 0.346676 -3.020363
2011-09-20 07:35:25 51°16.419 2°54.509 19.572 0.061423 0.346676 -3.020363
2011-09-20 07:35:29 51°16.42 2°54.51 19.5847 0.061423 0.346676 -3.020363
2011-09-20 07:35:34 51°16.421 2°54.511 19.6056 0.061423 0.346683 -3.020363
2011-09-20 07:35:39 51°16.422 2°54.512 19.6058 0.061423 0.346683 -3.020363
2011-09-20 07:35:44 51°16.423 2°54.514 19.5866 0.061423 0.346683 -3.020363
2011-09-20 07:35:50 51°16.425 2°54.515 19.596 0.061423 0.346683 -3.020363
2011-09-20 07:35:54 51°16.426 2°54.516 19.5885 0.061423 0.346683 -3.020363
2011-09-20 07:35:59 51°16.427 2°54.517 19.5854 0.061423 0.346689 -3.020363
2011-09-20 07:36:04 51°16.428 2°54.518 19.608 0.061423 0.346689 -3.020363
2011-09-20 07:36:10 51°16.429 2°54.519 19.6042 0.061423 0.346689 -3.020363
2011-09-20 07:36:14 51°16.43 2°54.52 19.6102 0.061423 0.346689 -3.020363
2011-09-20 07:36:19 51°16.431 2°54.521 19.6077 0.061423 0.346689 -3.020363
2011-09-20 07:36:24 51°16.433 2°54.522 19.6151 0.061423 0.346695 -3.020363
2011-09-20 07:36:29 51°16.434 2°54.522 19.6118 0.061423 0.346695 -3.020363
2011-09-20 07:36:34 51°16.437 2°54.522 19.604 0.061423 0.346695 -3.020363
2011-09-20 07:36:39 51°16.44 2°54.52 19.607 0.061423 0.346695 -3.020363
2011-09-20 07:36:44 51°16.443 2°54.518 19.6175 0.061423 0.346702 -3.020363
2011-09-20 07:36:49 51°16.446 2°54.515 19.607 0.061423 0.346702 -3.020363
2011-09-20 07:36:54 51°16.451 2°54.511 19.6154 0.061423 0.346702 -3.020363
2011-09-20 07:36:58 51°16.454 2°54.508 19.6283 0.061423 0.346708 -3.020363
2011-09-20 07:37:05 51°16.46 2°54.5 19.6147 0.061423 0.346708 -3.020363
2011-09-20 07:37:09 51°16.464 2°54.494 19.6298 0.061423 0.346708 -3.020363
2011-09-20 07:37:14 51°16.47 2°54.486 19.6212 0.061423 0.346708 -3.020363
2011-09-20 07:37:19 51°16.475 2°54.476 19.6079 0.061423 0.346708 -3.020363
2011-09-20 07:37:24 51°16.482 2°54.465 19.6142 0.061423 0.346708 -3.020363
2011-09-20 07:37:30 51°16.49 2°54.45 19.6017 0.061423 0.346708 -3.020363
2011-09-20 07:37:34 51°16.495 2°54.44 19.6121 0.061423 0.346708 -3.020363
2011-09-20 07:37:39 51°16.503 2°54.425 19.6252 0.061423 0.346708 -3.020363
2011-09-20 07:37:45 51°16.512 2°54.407 19.6219 0.061423 0.346715 -3.020363
2011-09-20 07:37:49 51°16.518 2°54.394 19.6194 0.061423 0.346715 -3.020363
2011-09-20 07:37:54 51°16.526 2°54.377 19.6251 0.061423 0.346715 -3.020363
2011-09-20 07:37:59 51°16.535 2°54.359 19.6173 0.061423 0.346715 -3.020363
2011-09-20 07:38:04 51°16.543 2°54.341 19.6024 0.061423 0.346715 -3.020363
2011-09-20 07:38:10 51°16.554 2°54.319 19.6082 0.061423 0.346715 -3.020363
2011-09-20 07:38:14 51°16.561 2°54.303 19.6245 0.061423 0.346721 -3.020363
2011-09-20 07:38:19 51°16.569 2°54.283 19.5918 0.061423 0.346721 -3.020363
2011-09-20 07:38:24 51°16.578 2°54.263 19.6218 0.061423 0.346721 -3.020363
2011-09-20 07:38:30 51°16.589 2°54.238 19.6293 0.061423 0.346721 -3.020363
2011-09-20 07:38:34 51°16.596 2°54.222 19.5908 0.061423 0.346721 -3.020363
2011-09-20 07:38:39 51°16.605 2°54.201 19.6209 0.061423 0.346727 -3.020363
2011-09-20 07:38:45 51°16.616 2°54.176 19.628 0.061423 0.346727 -3.020363
2011-09-20 07:38:50 51°16.625 2°54.155 19.5995 0.061423 0.346727 -3.020363
2011-09-20 07:38:54 51°16.632 2°54.138 19.6266 0.061423 0.346727 -3.020363
2011-09-20 07:38:58 51°16.639 2°54.12 19.627 0.061423 0.346727 -3.020363
2011-09-20 07:39:05 51°16.652 2°54.089 19.6076 0.061423 0.346734 -3.020363
2011-09-20 07:39:09 51°16.659 2°54.071 19.6198 0.061423 0.346734 -3.020363
2011-09-20 07:39:14 51°16.668 2°54.048 19.6059 0.061423 0.346734 -3.020363
2011-09-20 07:39:19 51°16.676 2°54.024 19.6221 0.061423 0.346734 -3.020363
2011-09-20 07:39:24 51°16.685 2°54 19.6123 0.061423 0.346734 -3.020363
2011-09-20 07:39:30 51°16.695 2°53.973 19.6147 0.061423 0.346734 -3.020363
2011-09-20 07:39:34 51°16.701 2°53.954 19.616 0.061423 0.346734 -3.020363
2011-09-20 07:39:39 51°16.709 2°53.931 19.6215 0.061423 0.346734 -3.020363
2011-09-20 07:39:44 51°16.717 2°53.907 19.6287 0.061423 0.34674 -3.020363
2011-09-20 07:39:50 51°16.728 2°53.879 19.6205 0.061423 0.34674 -3.020363
2011-09-20 07:39:54 51°16.734 2°53.86 19.6079 0.061423 0.346734 -3.020363
2011-09-20 07:39:59 51°16.743 2°53.837 19.6315 0.061423 0.34674 -3.020363
2011-09-20 07:40:05 51°16.754 2°53.81 19.6168 0.061423 0.34674 -3.020363
2011-09-20 07:40:09 51°16.761 2°53.792 19.6249 0.061423 0.346747 -3.020363
2011-09-20 07:40:14 51°16.77 2°53.769 19.6346 0.061423 0.34674 -3.020363
2011-09-20 07:40:19 51°16.779 2°53.746 19.6334 0.061423 0.34674 -3.020363
2011-09-20 07:40:24 51°16.787 2°53.724 19.6175 0.061423 0.346747 -3.020363
2011-09-20 07:40:30 51°16.798 2°53.696 19.6327 0.061423 0.346747 -3.020363
2011-09-20 07:40:34 51°16.804 2°53.677 19.6218 0.061423 0.346747 -3.020363
2011-09-20 07:40:39 51°16.813 2°53.655 19.6368 0.061423 0.346753 -3.020363
2011-09-20 07:40:44 51°16.822 2°53.631 19.636 0.061423 0.346747 -3.020363
2011-09-20 07:40:50 51°16.832 2°53.604 19.6292 0.061423 0.346747 -3.020363
2011-09-20 07:40:54 51°16.839 2°53.585 19.6325 0.061423 0.346747 -3.020363
2011-09-20 07:40:59 51°16.847 2°53.562 19.6303 0.061423 0.346753 -3.020363
2011-09-20 07:41:04 51°16.856 2°53.538 19.6294 0.061423 0.346747 -3.020363
2011-09-20 07:41:09 51°16.864 2°53.515 19.6427 0.061423 0.346747 -3.020363
2011-09-20 07:41:14 51°16.874 2°53.492 19.6202 0.061423 0.346747 -3.020363
2011-09-20 07:41:19 51°16.883 2°53.47 19.6447 0.061423 0.346747 -3.020363
2011-09-20 07:41:24 51°16.892 2°53.447 19.6418 0.061423 0.346753 -3.020363
2011-09-20 07:41:29 51°16.902 2°53.425 19.6421 0.061423 0.346753 -3.020363
2011-09-20 07:41:34 51°16.911 2°53.403 19.6476 0.061423 0.346753 -3.020363
2011-09-20 07:41:39 51°16.921 2°53.381 19.6245 0.061423 0.346759 -3.020363
2011-09-20 07:41:44 51°16.93 2°53.359 19.657 0.061423 0.346759 -3.020363
2011-09-20 07:41:50 51°16.941 2°53.332 19.6566 0.061423 0.346759 -3.020363
2011-09-20 07:41:54 51°16.948 2°53.313 19.6391 0.061423 0.346766 -3.020363
2011-09-20 07:41:59 51°16.956 2°53.291 19.6573 0.061423 0.346766 -3.020363
2011-09-20 07:42:05 51°16.966 2°53.264 19.6361 0.061423 0.346772 -3.020363
2011-09-20 07:42:09 51°16.973 2°53.245 19.637 0.061423 0.346766 -3.020363
2011-09-20 07:42:14 51°16.981 2°53.222 19.6534 0.061423 0.346766 -3.020363
2011-09-20 07:42:19 51°16.989 2°53.198 19.6369 0.061423 0.346766 -3.020363
2011-09-20 07:42:24 51°16.997 2°53.175 19.6454 0.061423 0.346766 -3.020363
2011-09-20 07:42:30 51°17.007 2°53.147 19.6526 0.061423 0.346759 -3.020363
2011-09-20 07:42:34 51°17.013 2°53.129 19.6334 0.061423 0.346759 -3.020363
2011-09-20 07:42:39 51°17.022 2°53.106 19.6537 0.061423 0.346766 -3.020363
2011-09-20 07:42:44 51°17.031 2°53.083 19.658 0.061423 0.346759 -3.020363
2011-09-20 07:42:50 51°17.042 2°53.056 19.6601 0.061423 0.346759 -3.020363
2011-09-20 07:42:54 51°17.05 2°53.038 19.6604 0.061423 0.346766 -3.020363
2011-09-20 07:42:59 51°17.059 2°53.015 19.6568 0.061423 0.346772 -3.020363
2011-09-20 07:43:04 51°17.068 2°52.992 19.6563 0.061423 0.346779 -3.020363
2011-09-20 07:43:09 51°17.077 2°52.969 19.6689 0.061423 0.346779 -3.020363
2011-09-20 07:43:14 51°17.085 2°52.946 19.6422 0.061423 0.346779 -3.020363
2011-09-20 07:43:19 51°17.094 2°52.922 19.6656 0.061423 0.346779 -3.020363
2011-09-20 07:43:24 51°17.102 2°52.899 19.6735 0.061423 0.346779 -3.020363
2011-09-20 07:43:29 51°17.111 2°52.876 19.6458 0.061423 0.346779 -3.020363
2011-09-20 07:43:34 51°17.119 2°52.852 19.6622 0.061423 0.346785 -3.020363
2011-09-20 07:43:39 51°17.127 2°52.828 19.6581 0.061423 0.346779 -3.020363
2011-09-20 07:43:45 51°17.137 2°52.8 19.6561 0.061423 0.346779 -3.020363
2011-09-20 07:43:49 51°17.144 2°52.781 19.6538 0.061423 0.346779 -3.020363
2011-09-20 07:43:54 51°17.153 2°52.758 19.6638 0.061423 0.346779 -3.020363
2011-09-20 07:43:59 51°17.162 2°52.735 19.657 0.061423 0.346779 -3.020363
2011-09-20 07:44:04 51°17.171 2°52.712 19.6657 0.061423 0.346779 -3.020363
2011-09-20 07:44:10 51°17.183 2°52.685 19.6732 0.061423 0.346779 -3.020363
2011-09-20 07:44:14 51°17.19 2°52.667 19.6743 0.061423 0.346785 -3.020363
2011-09-20 07:44:19 51°17.199 2°52.644 19.6583 0.061423 0.346785 -3.020363
2011-09-20 07:44:24 51°17.208 2°52.62 19.6642 0.061423 0.346785 -3.020363
2011-09-20 07:44:30 51°17.218 2°52.593 19.6694 0.061423 0.346785 -3.020363
2011-09-20 07:44:34 51°17.226 2°52.574 19.6821 0.061423 0.346791 -3.020363
2011-09-20 07:44:39 51°17.235 2°52.551 19.6713 0.061423 0.346791 -3.020363
2011-09-20 07:44:45 51°17.246 2°52.524 19.6648 0.061423 0.346791 -3.020363
2011-09-20 07:44:50 51°17.255 2°52.501 19.6794 0.061423 0.346791 -3.020363
2011-09-20 07:44:54 51°17.262 2°52.483 19.6758 0.061423 0.346791 -3.020363
2011-09-20 07:44:59 51°17.272 2°52.46 19.6717 0.061423 0.346791 -3.020363
2011-09-20 07:45:04 51°17.282 2°52.438 19.6843 0.061423 0.346791 -3.020363
2011-09-20 07:45:10 51°17.294 2°52.412 19.6738 0.061423 0.346791 -3.020363
2011-09-20 07:45:14 51°17.302 2°52.395 19.6853 0.061423 0.346791 -3.020363
2011-09-20 07:45:19 51°17.312 2°52.373 19.6674 0.061423 0.346791 -3.020363
2011-09-20 07:45:24 51°17.323 2°52.352 19.676 0.061423 0.346798 -3.020363
2011-09-20 07:45:29 51°17.333 2°52.33 19.6842 0.061423 0.346798 -3.020363
2011-09-20 07:45:34 51°17.344 2°52.308 19.6763 0.061423 0.346791 -3.020363
2011-09-20 07:45:39 51°17.355 2°52.287 19.6714 0.061423 0.346798 -3.020363
2011-09-20 07:45:44 51°17.367 2°52.267 19.6942 0.061423 0.346798 -3.020363
2011-09-20 07:45:49 51°17.378 2°52.247 19.676 0.061423 0.346798 -3.020363
2011-09-20 07:45:54 51°17.39 2°52.228 19.693 0.061423 0.346804 -3.020363
2011-09-20 07:45:59 51°17.402 2°52.209 19.6929 0.061423 0.346804 -3.020363
2011-09-20 07:46:04 51°17.414 2°52.19 19.7054 0.061423 0.346804 -3.020363
2011-09-20 07:46:09 51°17.426 2°52.17 19.675 0.061423 0.346804 -3.020363
2011-09-20 07:46:14 51°17.438 2°52.151 19.6821 0.061423 0.346804 -3.020363
2011-09-20 07:46:19 51°17.45 2°52.132 19.6945 0.061423 0.346804 -3.020363
2011-09-20 07:46:25 51°17.465 2°52.109 19.6846 0.061423 0.346804 -3.020363
2011-09-20 07:46:29 51°17.474 2°52.094 19.6859 0.061423 0.346804 -3.020363
2011-09-20 07:46:34 51°17.487 2°52.075 19.6868 0.061423 0.346804 -3.020363
2011-09-20 07:46:39 51°17.499 2°52.057 19.693 0.061423 0.346804 -3.020363
2011-09-20 07:46:44 51°17.512 2°52.038 19.6934 0.061423 0.346804 -3.020363
2011-09-20 07:46:50 51°17.528 2°52.017 19.6982 0.061423 0.346804 -3.020363
2011-09-20 07:46:54 51°17.538 2°52.002 19.7008 0.061423 0.346811 -3.020363
2011-09-20 07:46:59 51°17.551 2°51.984 19.7031 0.061423 0.346811 -3.020363
2011-09-20 07:47:04 51°17.565 2°51.966 19.7155 0.061423 0.346811 -3.020363
2011-09-20 07:47:10 51°17.58 2°51.945 19.7035 0.061423 0.346817 -3.020363
2011-09-20 07:47:14 51°17.591 2°51.93 19.7062 0.061423 0.346817 -3.020363
2011-09-20 07:47:19 51°17.604 2°51.912 19.686 0.061423 0.346817 -3.020363
2011-09-20 07:47:24 51°17.617 2°51.894 19.7132 0.061423 0.346817 -3.020363
2011-09-20 07:47:29 51°17.63 2°51.875 19.7174 0.061423 0.346817 -3.020363
2011-09-20 07:47:34 51°17.643 2°51.857 19.7079 0.061423 0.346817 -3.020363
2011-09-20 07:47:39 51°17.655 2°51.839 19.7135 0.061423 0.34683 -3.020363
2011-09-20 07:47:44 51°17.668 2°51.819 19.7143 0.061423 0.346823 -3.020363
2011-09-20 07:47:49 51°17.68 2°51.8 19.7049 0.061423 0.346823 -3.020363
2011-09-20 07:47:54 51°17.692 2°51.781 19.7143 0.061423 0.346823 -3.020363
2011-09-20 07:47:59 51°17.704 2°51.762 19.7156 0.061423 0.34683 -3.020363
2011-09-20 07:48:04 51°17.716 2°51.742 19.706 0.061423 0.34683 -3.020363
2011-09-20 07:48:09 51°17.728 2°51.723 19.7092 0.061423 0.34683 -3.020363
2011-09-20 07:48:14 51°17.739 2°51.703 19.713 0.061423 0.34683 -3.020363
2011-09-20 07:48:19 51°17.752 2°51.684 19.7155 0.061423 0.34683 -3.020363
2011-09-20 07:48:25 51°17.767 2°51.661 19.7267 0.061423 0.346817 -3.020363
2011-09-20 07:48:29 51°17.777 2°51.647 19.7192 0.061423 0.346823 -3.020363
2011-09-20 07:48:34 51°17.79 2°51.629 19.7181 0.061423 0.346823 -3.020363
2011-09-20 07:48:39 51°17.803 2°51.612 19.7346 0.061423 0.34683 -3.020363
2011-09-20 07:48:44 51°17.817 2°51.594 19.7077 0.061423 0.346836 -3.020363
2011-09-20 07:48:50 51°17.833 2°51.575 19.7302 0.061423 0.346836 -3.020363
2011-09-20 07:48:54 51°17.844 2°51.561 19.7279 0.061423 0.346836 -3.020363
2011-09-20 07:48:59 51°17.857 2°51.544 19.717 0.061423 0.346836 -3.020363
2011-09-20 07:49:05 51°17.873 2°51.524 19.728 0.061423 0.34683 -3.020363
2011-09-20 07:49:09 51°17.884 2°51.511 19.7322 0.061423 0.346836 -3.020363
2011-09-20 07:49:14 51°17.898 2°51.494 19.7219 0.061423 0.346836 -3.020363
2011-09-20 07:49:19 51°17.911 2°51.478 19.7177 0.061423 0.346836 -3.020363
2011-09-20 07:49:25 51°17.928 2°51.458 19.7308 0.061423 0.34683 -3.020363
2011-09-20 07:49:30 51°17.942 2°51.442 19.7146 0.061423 0.346836 -3.020363
2011-09-20 07:49:34 51°17.953 2°51.429 19.714 0.061423 0.346836 -3.020363
2011-09-20 07:49:39 51°17.967 2°51.413 19.7465 0.061423 0.346843 -3.020363
2011-09-20 07:49:44 51°17.981 2°51.396 19.719 0.061423 0.346843 -3.020363
2011-09-20 07:49:50 51°17.997 2°51.377 19.7488 0.061423 0.346843 -3.020363
2011-09-20 07:49:54 51°18.009 2°51.365 19.721 0.061423 0.346849 -3.020363
2011-09-20 07:49:59 51°18.022 2°51.348 19.7392 0.061423 0.346843 -3.020363
2011-09-20 07:50:04 51°18.036 2°51.332 19.7457 0.061423 0.346849 -3.020363
2011-09-20 07:50:10 51°18.053 2°51.313 19.7254 0.061423 0.346843 -3.020363
2011-09-20 07:50:14 51°18.065 2°51.301 19.7421 0.061423 0.346843 -3.020363
2011-09-20 07:50:19 51°18.079 2°51.285 19.7344 0.061423 0.346843 -3.020363
2011-09-20 07:50:24 51°18.094 2°51.271 19.7478 0.061423 0.346843 -3.020363
2011-09-20 07:50:30 51°18.111 2°51.254 19.738 0.061423 0.346849 -3.020363
2011-09-20 07:50:34 51°18.123 2°51.242 19.7409 0.061423 0.346849 -3.020363
2011-09-20 07:50:39 51°18.138 2°51.227 19.7488 0.061423 0.346849 -3.020363
2011-09-20 07:50:45 51°18.155 2°51.209 19.7562 0.061423 0.346855 -3.020363
2011-09-20 07:50:49 51°18.167 2°51.197 19.7515 0.061423 0.346855 -3.020363
2011-09-20 07:50:54 51°18.182 2°51.182 19.7549 0.061423 0.346855 -3.020363
2011-09-20 07:50:59 51°18.196 2°51.166 19.7549 0.061423 0.346855 -3.020363
2011-09-20 07:51:04 51°18.21 2°51.15 19.7459 0.061423 0.346862 -3.020363
2011-09-20 07:51:10 51°18.227 2°51.131 19.7428 0.061423 0.346855 -3.020363
2011-09-20 07:51:14 51°18.238 2°51.119 19.7518 0.061423 0.346855 -3.020363
2011-09-20 07:51:18 51°18.249 2°51.107 19.7457 0.061423 0.346855 -3.020363
2011-09-20 07:51:25 51°18.267 2°51.088 19.7661 0.061423 0.346862 -3.020363
2011-09-20 07:51:29 51°18.276 2°51.077 19.7698 0.061423 0.346862 -3.020363
2011-09-20 07:51:34 51°18.288 2°51.065 19.7615 0.061423 0.346868 -3.020363
2011-09-20 07:51:39 51°18.299 2°51.053 19.7496 0.061423 0.346862 -3.020363
2011-09-20 07:51:44 51°18.31 2°51.042 19.7608 0.061423 0.346868 -3.020363
2011-09-20 07:51:50 51°18.323 2°51.03 19.7549 0.061423 0.346868 -3.020363
2011-09-20 07:51:54 51°18.332 2°51.021 19.7662 0.061423 0.346862 -3.020363
2011-09-20 07:51:59 51°18.343 2°51.012 19.7545 0.061423 0.346862 -3.020363
2011-09-20 07:52:04 51°18.353 2°51.004 19.7539 0.061423 0.346855 -3.020363
2011-09-20 07:52:10 51°18.366 2°50.998 19.771 0.061423 0.346855 -3.020363
2011-09-20 07:52:14 51°18.373 2°50.996 19.7712 0.061423 0.346855 -3.020363
2011-09-20 07:52:19 51°18.383 2°50.994 19.7707 0.061423 0.346855 -3.020363
2011-09-20 07:52:24 51°18.391 2°50.994 19.7746 0.061423 0.346868 -3.020363
2011-09-20 07:52:29 51°18.399 2°50.995 19.7742 0.061423 0.346868 -3.020363
2011-09-20 07:52:34 51°18.407 2°50.996 19.7791 0.061423 0.346875 -3.020363
2011-09-20 07:52:39 51°18.414 2°50.998 19.7761 0.061423 0.346881 -3.020363
2011-09-20 07:52:44 51°18.422 2°51 19.7812 0.061423 0.346888 -3.020363
2011-09-20 07:52:49 51°18.429 2°51.003 19.7774 0.061423 0.346888 -3.020363
2011-09-20 07:52:54 51°18.435 2°51.005 19.7893 0.061423 0.346881 -3.020363
2011-09-20 07:52:59 51°18.442 2°51.007 19.7798 0.061423 0.346888 -3.020363
2011-09-20 07:53:04 51°18.448 2°51.009 19.7733 0.061423 0.346881 -3.020363
2011-09-20 07:53:10 51°18.456 2°51.011 19.7689 0.061423 0.346881 -3.020363
2011-09-20 07:53:14 51°18.461 2°51.012 19.7845 0.061423 0.346881 -3.020363
2011-09-20 07:53:19 51°18.467 2°51.013 19.7886 0.061423 0.346881 -3.020363
2011-09-20 07:53:25 51°18.474 2°51.014 19.7838 0.061423 0.346888 -3.020363
2011-09-20 07:53:29 51°18.478 2°51.015 19.7891 0.061423 0.346888 -3.020363
2011-09-20 07:53:34 51°18.483 2°51.016 19.7877 0.061423 0.346894 -3.020363
2011-09-20 07:53:39 51°18.488 2°51.016 19.7738 0.061423 0.346888 -3.020363
2011-09-20 07:53:44 51°18.493 2°51.017 19.7955 0.061423 0.346894 -3.020363
2011-09-20 07:53:50 51°18.497 2°51.017 19.7834 0.061423 0.346894 -3.020363
2011-09-20 07:53:54 51°18.5 2°51.018 19.7861 0.061423 0.3469 -3.020363
2011-09-20 07:53:59 51°18.503 2°51.019 19.8024 0.061423 0.3469 -3.020363
2011-09-20 07:54:04 51°18.505 2°51.02 19.7887 0.061423 0.346894 -3.020363
2011-09-20 07:54:10 51°18.507 2°51.021 19.7874 0.061423 0.3469 -3.020363
2011-09-20 07:54:14 51°18.508 2°51.022 19.7841 0.061423 0.3469 -3.020363
2011-09-20 07:54:19 51°18.509 2°51.023 19.7941 0.061423 0.3469 -3.020363
2011-09-20 07:54:24 51°18.509 2°51.023 19.799 0.061423 0.3469 -3.020363
2011-09-20 07:54:30 51°18.51 2°51.024 19.8001 0.061423 0.3469 -3.020363
2011-09-20 07:54:34 51°18.51 2°51.024 19.8074 0.061423 0.346907 -3.020363
2011-09-20 07:54:39 51°18.51 2°51.025 19.7999 0.061423 0.346907 -3.020363
2011-09-20 07:54:44 51°18.51 2°51.025 19.8007 0.061423 0.3469 -3.020363
2011-09-20 07:54:49 51°18.511 2°51.026 19.797 0.061423 0.3469 -3.020363
2011-09-20 07:54:54 51°18.512 2°51.026 19.7974 0.061423 0.3469 -3.020363
2011-09-20 07:54:59 51°18.512 2°51.027 19.7914 0.061423 0.3469 -3.020363
2011-09-20 07:55:04 51°18.513 2°51.028 19.7998 0.061423 0.3469 -3.020363
2011-09-20 07:55:10 51°18.514 2°51.03 19.8142 0.061423 0.3469 -3.020363
2011-09-20 07:55:14 51°18.515 2°51.031 19.8103 0.061423 0.3469 -3.020363
2011-09-20 07:55:19 51°18.516 2°51.032 19.8104 0.061423 0.3469 -3.020363
2011-09-20 07:55:25 51°18.517 2°51.033 19.818 0.061423 0.3469 -3.020363
2011-09-20 07:55:29 51°18.518 2°51.034 19.8129 0.061423 0.3469 -3.020363
2011-09-20 07:55:34 51°18.519 2°51.034 19.8091 0.061423 0.346907 -3.020363
2011-09-20 07:55:39 51°18.52 2°51.036 19.8172 0.061423 0.346907 -3.020363
2011-09-20 07:55:44 51°18.521 2°51.037 19.8189 0.061423 0.346907 -3.020363
2011-09-20 07:55:50 51°18.522 2°51.038 19.8246 0.061423 0.346907 -3.020363
2011-09-20 07:55:54 51°18.523 2°51.039 19.8197 0.061423 0.346907 -3.020363
2011-09-20 07:55:59 51°18.525 2°51.04 19.8217 0.061423 0.346913 -3.020363
2011-09-20 07:56:05 51°18.526 2°51.042 19.812 0.061423 0.346913 -3.020363
2011-09-20 07:56:10 51°18.528 2°51.043 19.8201 0.061423 0.346913 -3.020363
2011-09-20 07:56:14 51°18.529 2°51.044 19.8136 0.061423 0.34692 -3.020363
2011-09-20 07:56:19 51°18.531 2°51.045 19.8183 0.061423 0.34692 -3.020363
2011-09-20 07:56:24 51°18.532 2°51.047 19.8263 0.061423 0.34692 -3.020363
2011-09-20 07:56:30 51°18.534 2°51.048 19.8202 0.061423 0.34692 -3.020363
2011-09-20 07:56:34 51°18.535 2°51.049 19.8281 0.061423 0.346926 -3.020363
2011-09-20 07:56:39 51°18.537 2°51.05 19.8219 0.061423 0.346926 -3.020363
2011-09-20 07:56:44 51°18.538 2°51.051 19.8116 0.061423 0.34692 -3.020363
2011-09-20 07:56:49 51°18.54 2°51.052 19.8144 0.061423 0.34692 -3.020363
2011-09-20 07:56:54 51°18.542 2°51.053 19.8178 0.061423 0.34692 -3.020363
2011-09-20 07:56:58 51°18.543 2°51.055 19.8203 0.061423 0.34692 -3.020363
2011-09-20 07:57:04 51°18.545 2°51.056 19.8418 0.061423 0.34692 -3.020363
2011-09-20 07:57:09 51°18.547 2°51.057 19.8445 0.061423 0.34692 -3.020363
2011-09-20 07:57:14 51°18.548 2°51.058 19.8394 0.061423 0.346926 -3.020363
2011-09-20 07:57:19 51°18.55 2°51.059 19.8372 0.061423 0.346926 -3.020363
2011-09-20 07:57:24 51°18.552 2°51.06 19.8287 0.061423 0.346926 -3.020363
2011-09-20 07:57:30 51°18.554 2°51.061 19.8417 0.061423 0.346926 -3.020363
2011-09-20 07:57:34 51°18.555 2°51.062 19.8282 0.061423 0.346926 -3.020363
2011-09-20 07:57:39 51°18.557 2°51.063 19.8478 0.061423 0.346926 -3.020363
2011-09-20 07:57:45 51°18.559 2°51.064 19.847 0.061423 0.346926 -3.020363
2011-09-20 07:57:49 51°18.56 2°51.065 19.8491 0.061423 0.346926 -3.020363
2011-09-20 07:57:54 51°18.561 2°51.065 19.8494 0.061423 0.346926 -3.020363
2011-09-20 07:57:59 51°18.563 2°51.066 19.8425 0.061423 0.346926 -3.020363
2011-09-20 07:58:04 51°18.565 2°51.066 19.8511 0.061423 0.346926 -3.020363
2011-09-20 07:58:10 51°18.567 2°51.067 19.8496 0.061423 0.346926 -3.020363
2011-09-20 07:58:14 51°18.568 2°51.068 19.8491 0.061423 0.346926 -3.020363
2011-09-20 07:58:19 51°18.569 2°51.068 19.8465 0.061423 0.346926 -3.020363
2011-09-20 07:58:25 51°18.571 2°51.069 19.8461 0.061423 0.346926 -3.020363
2011-09-20 07:58:30 51°18.573 2°51.07 19.8523 0.061423 0.346932 -3.020363
2011-09-20 07:58:34 51°18.574 2°51.07 19.8585 0.061423 0.346932 -3.020363
2011-09-20 07:58:39 51°18.575 2°51.071 19.8466 0.061423 0.346932 -3.020363
2011-09-20 07:58:44 51°18.577 2°51.071 19.8387 0.061423 0.346932 -3.020363
2011-09-20 07:58:49 51°18.579 2°51.072 19.851 0.061423 0.346932 -3.020363
2011-09-20 07:58:54 51°18.58 2°51.072 19.8565 0.061423 0.346932 -3.020363
2011-09-20 07:58:59 51°18.582 2°51.073 19.8651 0.061423 0.346932 -3.020363
2011-09-20 07:59:04 51°18.583 2°51.074 19.85 0.061423 0.346932 -3.020363
2011-09-20 07:59:09 51°18.584 2°51.075 19.8647 0.061423 0.346932 -3.020363
2011-09-20 07:59:14 51°18.586 2°51.075 19.8698 0.061423 0.346932 -3.020363
2011-09-20 07:59:19 51°18.587 2°51.076 19.8583 0.061423 0.346932 -3.020363
2011-09-20 07:59:24 51°18.588 2°51.076 19.866 0.061423 0.346939 -3.020363
2011-09-20 07:59:30 51°18.59 2°51.077 19.8534 0.061423 0.346939 -3.020363
2011-09-20 07:59:34 51°18.591 2°51.078 19.8711 0.061423 0.346932 -3.020363
2011-09-20 07:59:39 51°18.593 2°51.078 19.8637 0.061423 0.346939 -3.020363
2011-09-20 07:59:45 51°18.596 2°51.078 19.8673 0.061423 0.346926 -3.020363
2011-09-20 07:59:49 51°18.598 2°51.078 19.8526 0.061423 0.346926 -3.020363
2011-09-20 07:59:54 51°18.601 2°51.078 19.8515 0.061423 0.346926 -3.020363
2011-09-20 07:59:59 51°18.605 2°51.077 19.8694 0.061423 0.34692 -3.020363
2011-09-20 08:00:05 51°18.611 2°51.077 19.8547 0.061423 0.34692 -3.020363
2011-09-20 08:00:10 51°18.616 2°51.078 19.8611 0.061423 0.34692 -3.020363
2011-09-20 08:00:14 51°18.621 2°51.079 19.8535 0.061423 0.346926 -3.020363
2011-09-20 08:00:19 51°18.627 2°51.081 19.8742 0.061423 0.346926 -3.020363
2011-09-20 08:00:25 51°18.633 2°51.086 19.8628 0.061423 0.346932 -3.020363
2011-09-20 08:00:30 51°18.639 2°51.091 19.8542 0.061423 0.346939 -3.020363
2011-09-20 08:00:34 51°18.644 2°51.096 19.8661 0.061423 0.346945 -3.020363
2011-09-20 08:00:39 51°18.649 2°51.104 19.8807 0.061423 0.346958 -3.020363
2011-09-20 08:00:45 51°18.655 2°51.115 19.8753 0.061423 0.346964 -3.020363
2011-09-20 08:00:49 51°18.66 2°51.123 19.864 0.061423 0.346964 -3.020363
2011-09-20 08:00:54 51°18.666 2°51.135 19.8784 0.061423 0.346964 -3.020363
2011-09-20 08:00:59 51°18.67 2°51.149 19.8701 0.061423 0.346964 -3.020363
2011-09-20 08:01:04 51°18.676 2°51.164 19.8867 0.061423 0.346964 -3.020363
2011-09-20 08:01:09 51°18.68 2°51.18 19.8652 0.061423 0.346958 -3.020363
2011-09-20 08:01:14 51°18.685 2°51.198 19.894 0.061423 0.346964 -3.020363
2011-09-20 08:01:19 51°18.69 2°51.216 19.8735 0.061423 0.346964 -3.020363
2011-09-20 08:01:24 51°18.695 2°51.235 19.8879 0.061423 0.346952 -3.020363
2011-09-20 08:01:29 51°18.699 2°51.257 19.872 0.061423 0.346964 -3.020363
2011-09-20 08:01:34 51°18.705 2°51.278 19.8964 0.061423 0.346952 -3.020363
2011-09-20 08:01:39 51°18.709 2°51.301 19.8712 0.061423 0.346958 -3.020363
2011-09-20 08:01:45 51°18.717 2°51.329 19.883 0.061423 0.346952 -3.020363
2011-09-20 08:01:49 51°18.721 2°51.347 19.8835 0.061423 0.346952 -3.020363
2011-09-20 08:01:54 51°18.727 2°51.372 19.8734 0.061423 0.346958 -3.020363
2011-09-20 08:01:59 51°18.734 2°51.396 19.8895 0.061423 0.346952 -3.020363
2011-09-20 08:02:04 51°18.74 2°51.421 19.8726 0.061423 0.346964 -3.020363
2011-09-20 08:02:10 51°18.748 2°51.451 19.9045 0.061423 0.346952 -3.020363
2011-09-20 08:02:14 51°18.752 2°51.471 19.8862 0.061423 0.346958 -3.020363
2011-09-20 08:02:19 51°18.759 2°51.497 19.8961 0.061423 0.346958 -3.020363
2011-09-20 08:02:25 51°18.767 2°51.528 19.9015 0.061423 0.346958 -3.020363
2011-09-20 08:02:29 51°18.773 2°51.548 19.9034 0.061423 0.346964 -3.020363
2011-09-20 08:02:34 51°18.78 2°51.573 19.8867 0.061423 0.346971 -3.020363
2011-09-20 08:02:39 51°18.787 2°51.598 19.8958 0.061423 0.346964 -3.020363
2011-09-20 08:02:44 51°18.794 2°51.623 19.9018 0.061423 0.346958 -3.020363
2011-09-20 08:02:50 51°18.802 2°51.653 19.8995 0.061423 0.346958 -3.020363
2011-09-20 08:02:54 51°18.808 2°51.673 19.8729 0.061423 0.346971 -3.020363
2011-09-20 08:02:59 51°18.816 2°51.698 19.8977 0.061423 0.346952 -3.020363
2011-09-20 08:03:04 51°18.822 2°51.723 19.9045 0.061423 0.346958 -3.020363
2011-09-20 08:03:10 51°18.83 2°51.753 19.883 0.061423 0.346958 -3.020363
2011-09-20 08:03:14 51°18.836 2°51.773 19.9033 0.061423 0.346952 -3.020363
2011-09-20 08:03:19 51°18.842 2°51.799 19.9125 0.061423 0.346952 -3.020363
2011-09-20 08:03:24 51°18.849 2°51.825 19.912 0.061423 0.346952 -3.020363
2011-09-20 08:03:29 51°18.855 2°51.85 19.9088 0.061423 0.346952 -3.020363
2011-09-20 08:03:34 51°18.862 2°51.876 19.8938 0.061423 0.346952 -3.020363
2011-09-20 08:03:39 51°18.869 2°51.9 19.9147 0.061423 0.346952 -3.020363
2011-09-20 08:03:45 51°18.876 2°51.932 19.9188 0.061423 0.346958 -3.020363
2011-09-20 08:03:49 51°18.881 2°51.953 19.9055 0.061423 0.346958 -3.020363
2011-09-20 08:03:54 51°18.887 2°51.978 19.9216 0.061423 0.346952 -3.020363
2011-09-20 08:03:59 51°18.893 2°52.004 19.9102 0.061423 0.346958 -3.020363
2011-09-20 08:04:04 51°18.899 2°52.03 19.925 0.061423 0.346952 -3.020363
2011-09-20 08:04:10 51°18.906 2°52.062 19.9197 0.061423 0.346958 -3.020363
2011-09-20 08:04:14 51°18.911 2°52.082 19.9289 0.061423 0.346964 -3.020363
2011-09-20 08:04:19 51°18.917 2°52.108 19.9105 0.061423 0.346964 -3.020363
2011-09-20 08:04:25 51°18.925 2°52.138 19.9417 0.061423 0.346952 -3.020363
2011-09-20 08:04:29 51°18.929 2°52.159 19.9085 0.061423 0.346971 -3.020363
2011-09-20 08:04:34 51°18.937 2°52.184 19.9499 0.061423 0.346952 -3.020363
2011-09-20 08:04:39 51°18.942 2°52.21 19.9124 0.061423 0.346977 -3.020363
2011-09-20 08:04:44 51°18.95 2°52.235 19.9236 0.061423 0.346958 -3.020363
2011-09-20 08:04:50 51°18.957 2°52.265 19.9356 0.061423 0.346958 -3.020363
2011-09-20 08:04:54 51°18.962 2°52.286 19.937 0.061423 0.346964 -3.020363
2011-09-20 08:04:59 51°18.968 2°52.312 19.9107 0.061423 0.346971 -3.020363
2011-09-20 08:05:05 51°18.977 2°52.341 19.9342 0.061423 0.346958 -3.020363
2011-09-20 08:05:10 51°18.982 2°52.368 19.9221 0.061423 0.346958 -3.020363
2011-09-20 08:05:14 51°18.988 2°52.388 19.93 0.061423 0.346958 -3.020363
2011-09-20 08:05:19 51°18.993 2°52.414 19.9463 0.061423 0.346958 -3.020363
2011-09-20 08:05:24 51°18.999 2°52.44 19.9452 0.061423 0.346958 -3.020363
2011-09-20 08:05:29 51°19.006 2°52.465 19.9428 0.061423 0.346958 -3.020363
2011-09-20 08:05:34 51°19.011 2°52.492 19.9283 0.061423 0.346964 -3.020363
2011-09-20 08:05:39 51°19.018 2°52.517 19.9491 0.061423 0.346958 -3.020363
2011-09-20 08:05:44 51°19.024 2°52.542 19.9555 0.061423 0.346958 -3.020363
2011-09-20 08:05:50 51°19.031 2°52.573 19.953 0.061423 0.346958 -3.020363
2011-09-20 08:05:54 51°19.037 2°52.593 19.9503 0.061423 0.346958 -3.020363
2011-09-20 08:05:59 51°19.044 2°52.618 19.9475 0.061423 0.346964 -3.020363
2011-09-20 08:06:04 51°19.051 2°52.643 19.9574 0.061423 0.346958 -3.020363
2011-09-20 08:06:09 51°19.059 2°52.668 19.9586 0.061423 0.346958 -3.020363
2011-09-20 08:06:14 51°19.066 2°52.693 19.9368 0.061423 0.346958 -3.020363
2011-09-20 08:06:19 51°19.074 2°52.717 19.9555 0.061423 0.346958 -3.020363
2011-09-20 08:06:24 51°19.08 2°52.743 19.9568 0.061423 0.346958 -3.020363
2011-09-20 08:06:29 51°19.087 2°52.768 19.966 0.061423 0.346958 -3.020363
2011-09-20 08:06:34 51°19.094 2°52.793 19.9626 0.061423 0.346958 -3.020363
2011-09-20 08:06:39 51°19.101 2°52.819 19.9486 0.061423 0.346964 -3.020363
2011-09-20 08:06:44 51°19.107 2°52.844 19.9682 0.061423 0.346958 -3.020363
2011-09-20 08:06:50 51°19.114 2°52.875 19.9708 0.061423 0.346958 -3.020363
2011-09-20 08:06:54 51°19.12 2°52.895 19.948 0.061423 0.346971 -3.020363
2011-09-20 08:06:59 51°19.127 2°52.921 19.9543 0.061423 0.346964 -3.020363
2011-09-20 08:07:05 51°19.135 2°52.952 19.9551 0.061423 0.346964 -3.020363
2011-09-20 08:07:09 51°19.14 2°52.973 19.9594 0.061423 0.346964 -3.020363
2011-09-20 08:07:14 51°19.146 2°52.998 19.9637 0.061423 0.346971 -3.020363
2011-09-20 08:07:19 51°19.154 2°53.024 19.959 0.061423 0.346971 -3.020363
2011-09-20 08:07:25 51°19.162 2°53.055 19.9747 0.061423 0.346964 -3.020363
2011-09-20 08:07:30 51°19.168 2°53.08 19.9538 0.061423 0.346964 -3.020363
2011-09-20 08:07:34 51°19.174 2°53.1 19.9936 0.061423 0.346964 -3.020363
2011-09-20 08:07:39 51°19.179 2°53.126 19.9478 0.061423 0.346971 -3.020363
2011-09-20 08:07:44 51°19.187 2°53.151 19.9742 0.061423 0.346964 -3.020363
2011-09-20 08:07:50 51°19.193 2°53.181 19.9722 0.061423 0.346964 -3.020363
2011-09-20 08:07:54 51°19.198 2°53.201 19.9549 0.061423 0.346971 -3.020363
2011-09-20 08:07:59 51°19.204 2°53.227 19.9645 0.061423 0.346977 -3.020363
2011-09-20 08:08:04 51°19.21 2°53.251 19.9897 0.061423 0.346971 -3.020363
2011-09-20 08:08:09 51°19.215 2°53.277 19.963 0.061423 0.346977 -3.020363
2011-09-20 08:08:14 51°19.222 2°53.302 19.9971 0.061423 0.346971 -3.020363
2011-09-20 08:08:19 51°19.228 2°53.328 19.964 0.061423 0.346971 -3.020363
2011-09-20 08:08:24 51°19.235 2°53.352 19.9731 0.061423 0.346977 -3.020363
2011-09-20 08:08:29 51°19.241 2°53.378 19.9813 0.061423 0.346971 -3.020363
2011-09-20 08:08:34 51°19.247 2°53.403 19.9785 0.061423 0.346971 -3.020363
2011-09-20 08:08:39 51°19.252 2°53.429 19.9995 0.061423 0.346964 -3.020363
2011-09-20 08:08:44 51°19.257 2°53.454 19.9965 0.061423 0.346977 -3.020363
2011-09-20 08:08:50 51°19.265 2°53.484 19.9737 0.061423 0.346977 -3.020363
2011-09-20 08:08:54 51°19.27 2°53.504 19.9947 0.061423 0.346977 -3.020363
2011-09-20 08:08:59 51°19.276 2°53.529 19.9958 0.061423 0.346971 -3.020363
2011-09-20 08:09:05 51°19.283 2°53.56 19.9786 0.061423 0.346977 -3.020363
2011-09-20 08:09:09 51°19.288 2°53.58 19.9771 0.061423 0.346971 -3.020363
2011-09-20 08:09:14 51°19.295 2°53.605 20.0018 0.061423 0.346977 -3.020363
2011-09-20 08:09:19 51°19.301 2°53.632 19.9778 0.061423 0.346977 -3.020363
2011-09-20 08:09:24 51°19.308 2°53.657 19.9994 0.061423 0.346977 -3.020363
2011-09-20 08:09:30 51°19.314 2°53.687 20.0154 0.061423 0.346971 -3.020363
2011-09-20 08:09:34 51°19.32 2°53.708 19.9647 0.061423 0.34699 -3.020363
2011-09-20 08:09:39 51°19.328 2°53.733 19.9975 0.061423 0.346971 -3.020363
2011-09-20 08:09:44 51°19.333 2°53.758 20.0075 0.061423 0.346984 -3.020363
2011-09-20 08:09:50 51°19.341 2°53.788 20.0032 0.061423 0.346984 -3.020363
2011-09-20 08:09:54 51°19.347 2°53.809 19.9884 0.061423 0.34699 -3.020363
2011-09-20 08:09:59 51°19.354 2°53.834 20.0387 0.061423 0.346971 -3.020363
2011-09-20 08:10:04 51°19.359 2°53.859 20.0073 0.061423 0.346984 -3.020363
2011-09-20 08:10:10 51°19.368 2°53.889 20.0007 0.061423 0.346984 -3.020363
2011-09-20 08:10:14 51°19.373 2°53.908 19.986 0.061423 0.346971 -3.020363
2011-09-20 08:10:19 51°19.38 2°53.932 20.0284 0.061423 0.346971 -3.020363
2011-09-20 08:10:24 51°19.386 2°53.958 19.9845 0.061423 0.346984 -3.020363
2011-09-20 08:10:29 51°19.394 2°53.982 20.0161 0.061423 0.346971 -3.020363
2011-09-20 08:10:34 51°19.4 2°54.008 20.0144 0.061423 0.346977 -3.020363
2011-09-20 08:10:38 51°19.406 2°54.027 20.0278 0.061423 0.346971 -3.020363
2011-09-20 08:10:45 51°19.416 2°54.062 20.0397 0.061423 0.346977 -3.020363
2011-09-20 08:10:49 51°19.421 2°54.083 20.0163 0.061423 0.346977 -3.020363
2011-09-20 08:10:54 51°19.429 2°54.107 20.0123 0.061423 0.346977 -3.020363
2011-09-20 08:10:59 51°19.435 2°54.132 20.0157 0.061423 0.346977 -3.020363
2011-09-20 08:11:04 51°19.442 2°54.158 20.0249 0.061423 0.346971 -3.020363
2011-09-20 08:11:10 51°19.449 2°54.188 20.0166 0.061423 0.346971 -3.020363
2011-09-20 08:11:14 51°19.455 2°54.208 20.0433 0.061423 0.346977 -3.020363
2011-09-20 08:11:19 51°19.46 2°54.234 20.0189 0.061423 0.346977 -3.020363
2011-09-20 08:11:25 51°19.47 2°54.264 20.0367 0.061423 0.346984 -3.020363
2011-09-20 08:11:29 51°19.475 2°54.284 20.041 0.061423 0.346977 -3.020363
2011-09-20 08:11:34 51°19.483 2°54.308 20.043 0.061423 0.346984 -3.020363
2011-09-20 08:11:39 51°19.49 2°54.333 20.0478 0.061423 0.346977 -3.020363
2011-09-20 08:11:44 51°19.498 2°54.357 20.0256 0.061423 0.346984 -3.020363
2011-09-20 08:11:50 51°19.507 2°54.386 19.9981 0.061423 0.346984 -3.020363
2011-09-20 08:11:54 51°19.514 2°54.405 20.0284 0.061423 0.346977 -3.020363
2011-09-20 08:11:59 51°19.52 2°54.431 20.0492 0.061423 0.346977 -3.020363
2011-09-20 08:12:04 51°19.527 2°54.455 20.0455 0.061423 0.346984 -3.020363
2011-09-20 08:12:10 51°19.536 2°54.485 20.0469 0.061423 0.346984 -3.020363
2011-09-20 08:12:14 51°19.542 2°54.505 20.0511 0.061423 0.346984 -3.020363
2011-09-20 08:12:19 51°19.549 2°54.529 20.0488 0.061423 0.346984 -3.020363
2011-09-20 08:12:24 51°19.556 2°54.554 20.0214 0.061423 0.346984 -3.020363
2011-09-20 08:12:29 51°19.564 2°54.579 20.0218 0.061423 0.346984 -3.020363
2011-09-20 08:12:34 51°19.571 2°54.604 20.0496 0.061423 0.346977 -3.020363
2011-09-20 08:12:39 51°19.578 2°54.628 20.0584 0.061423 0.34699 -3.020363
2011-09-20 08:12:45 51°19.586 2°54.659 20.0179 0.061423 0.346984 -3.020363
2011-09-20 08:12:49 51°19.591 2°54.679 20.0581 0.061423 0.346984 -3.020363
2011-09-20 08:12:54 51°19.597 2°54.704 20.0439 0.061423 0.346977 -3.020363
2011-09-20 08:12:59 51°19.603 2°54.728 20.0427 0.061423 0.34699 -3.020363
2011-09-20 08:13:05 51°19.611 2°54.759 20.0399 0.061423 0.346997 -3.020363
2011-09-20 08:13:09 51°19.617 2°54.779 20.0397 0.061423 0.346977 -3.020363
2011-09-20 08:13:14 51°19.623 2°54.803 20.067 0.061423 0.34699 -3.020363
2011-09-20 08:13:19 51°19.629 2°54.828 20.028 0.061423 0.34699 -3.020363
2011-09-20 08:13:24 51°19.637 2°54.853 20.0361 0.061423 0.34699 -3.020363
2011-09-20 08:13:30 51°19.644 2°54.883 20.0618 0.061423 0.346977 -3.020363
2011-09-20 08:13:34 51°19.648 2°54.903 20.0594 0.061423 0.34699 -3.020363
2011-09-20 08:13:39 51°19.655 2°54.928 20.0491 0.061423 0.346984 -3.020363
2011-09-20 08:13:45 51°19.662 2°54.959 20.0559 0.061423 0.346984 -3.020363
2011-09-20 08:13:49 51°19.667 2°54.979 20.069 0.061423 0.346984 -3.020363
2011-09-20 08:13:54 51°19.673 2°55.004 20.0732 0.061423 0.346984 -3.020363
2011-09-20 08:13:59 51°19.678 2°55.029 20.0623 0.061423 0.34699 -3.020363
2011-09-20 08:14:05 51°19.686 2°55.059 20.0539 0.061423 0.34699 -3.020363
2011-09-20 08:14:10 51°19.692 2°55.084 20.0716 0.061423 0.34699 -3.020363
2011-09-20 08:14:14 51°19.696 2°55.105 20.088 0.061423 0.34699 -3.020363
2011-09-20 08:14:19 51°19.702 2°55.131 20.0439 0.061423 0.34699 -3.020363
2011-09-20 08:14:24 51°19.709 2°55.155 20.0862 0.061423 0.34699 -3.020363
2011-09-20 08:14:30 51°19.716 2°55.186 20.0499 0.061423 0.346997 -3.020363
2011-09-20 08:14:34 51°19.722 2°55.206 20.0931 0.061423 0.34699 -3.020363
2011-09-20 08:14:39 51°19.728 2°55.232 20.0648 0.061423 0.346997 -3.020363
2011-09-20 08:14:44 51°19.734 2°55.257 20.0794 0.061423 0.34699 -3.020363
2011-09-20 08:14:49 51°19.741 2°55.282 20.0934 0.061423 0.34699 -3.020363
2011-09-20 08:14:54 51°19.748 2°55.307 20.0592 0.061423 0.346997 -3.020363
2011-09-20 08:14:59 51°19.756 2°55.331 20.0882 0.061423 0.34699 -3.020363
2011-09-20 08:15:05 51°19.763 2°55.361 20.0654 0.061423 0.347003 -3.020363
2011-09-20 08:15:09 51°19.769 2°55.381 20.0355 0.061423 0.34699 -3.020363
2011-09-20 08:15:14 51°19.775 2°55.406 20.0748 0.061423 0.34699 -3.020363
2011-09-20 08:15:19 51°19.781 2°55.431 20.0777 0.061423 0.34699 -3.020363
2011-09-20 08:15:24 51°19.787 2°55.457 20.095 0.061423 0.34699 -3.020363
2011-09-20 08:15:30 51°19.794 2°55.487 20.093 0.061423 0.346997 -3.020363
2011-09-20 08:15:34 51°19.799 2°55.507 20.0505 0.061423 0.346997 -3.020363
2011-09-20 08:15:39 51°19.805 2°55.533 20.0883 0.061423 0.346997 -3.020363
2011-09-20 08:15:45 51°19.811 2°55.564 20.0726 0.061423 0.346997 -3.020363
2011-09-20 08:15:49 51°19.816 2°55.585 20.0911 0.061423 0.346997 -3.020363
2011-09-20 08:15:54 51°19.821 2°55.611 20.0772 0.061423 0.346997 -3.020363
2011-09-20 08:15:59 51°19.827 2°55.637 20.1142 0.061423 0.34699 -3.020363
2011-09-20 08:16:04 51°19.831 2°55.663 20.069 0.061423 0.347003 -3.020363
2011-09-20 08:16:10 51°19.839 2°55.694 20.112 0.061423 0.346997 -3.020363
2011-09-20 08:16:14 51°19.842 2°55.715 20.091 0.061423 0.347003 -3.020363
2011-09-20 08:16:18 51°19.847 2°55.736 20.1122 0.061423 0.347003 -3.020363
2011-09-20 08:16:25 51°19.854 2°55.772 20.1103 0.061423 0.346997 -3.020363
2011-09-20 08:16:29 51°19.859 2°55.792 20.1057 0.061423 0.346997 -3.020363
2011-09-20 08:16:34 51°19.864 2°55.818 20.0694 0.061423 0.347003 -3.020363
2011-09-20 08:16:39 51°19.87 2°55.843 20.0816 0.061423 0.346997 -3.020363
2011-09-20 08:16:44 51°19.875 2°55.868 20.0877 0.061423 0.346997 -3.020363
2011-09-20 08:16:50 51°19.882 2°55.898 20.1059 0.061423 0.346997 -3.020363
2011-09-20 08:16:54 51°19.885 2°55.919 20.0995 0.061423 0.34699 -3.020363
2011-09-20 08:16:58 51°19.888 2°55.94 20.1052 0.061423 0.346997 -3.020363
2011-09-20 08:17:04 51°19.894 2°55.971 20.1087 0.061423 0.346997 -3.020363
2011-09-20 08:17:09 51°19.898 2°55.998 20.082 0.061423 0.347003 -3.020363
2011-09-20 08:17:14 51°19.902 2°56.024 20.1054 0.061423 0.346997 -3.020363
2011-09-20 08:17:19 51°19.905 2°56.051 20.1083 0.061423 0.346997 -3.020363
2011-09-20 08:17:24 51°19.908 2°56.078 20.1127 0.061423 0.347003 -3.020363
2011-09-20 08:17:29 51°19.911 2°56.104 20.1298 0.061423 0.347003 -3.020363
2011-09-20 08:17:34 51°19.915 2°56.13 20.0841 0.061423 0.347009 -3.020363
2011-09-20 08:17:39 51°19.919 2°56.158 20.0982 0.061423 0.347003 -3.020363
2011-09-20 08:17:45 51°19.923 2°56.19 20.131 0.061423 0.347003 -3.020363
2011-09-20 08:17:49 51°19.926 2°56.211 20.1285 0.061423 0.347003 -3.020363
2011-09-20 08:17:54 51°19.93 2°56.238 20.0981 0.061423 0.347003 -3.020363
2011-09-20 08:17:59 51°19.934 2°56.264 20.1312 0.061423 0.347003 -3.020363
2011-09-20 08:18:05 51°19.938 2°56.296 20.1063 0.061423 0.347003 -3.020363
2011-09-20 08:18:10 51°19.941 2°56.323 20.1148 0.061423 0.347003 -3.020363
2011-09-20 08:18:14 51°19.944 2°56.344 20.1219 0.061423 0.347003 -3.020363
2011-09-20 08:18:19 51°19.947 2°56.369 20.1371 0.061423 0.347003 -3.020363
2011-09-20 08:18:25 51°19.951 2°56.402 20.1091 0.061423 0.347016 -3.020363
2011-09-20 08:18:30 51°19.955 2°56.428 20.1416 0.061423 0.347003 -3.020363
2011-09-20 08:18:34 51°19.958 2°56.449 20.1259 0.061423 0.347016 -3.020363
2011-09-20 08:18:39 51°19.962 2°56.475 20.1454 0.061423 0.347009 -3.020363
2011-09-20 08:18:45 51°19.967 2°56.507 20.1438 0.061423 0.347016 -3.020363
2011-09-20 08:18:49 51°19.97 2°56.528 20.1176 0.061423 0.347016 -3.020363
2011-09-20 08:18:54 51°19.974 2°56.554 20.1126 0.061423 0.347016 -3.020363
2011-09-20 08:18:59 51°19.979 2°56.579 20.1334 0.061423 0.347003 -3.020363
2011-09-20 08:19:04 51°19.982 2°56.606 20.1054 0.061423 0.347016 -3.020363
2011-09-20 08:19:09 51°19.987 2°56.632 20.1539 0.061423 0.347009 -3.020363
2011-09-20 08:19:14 51°19.99 2°56.658 20.1207 0.061423 0.347016 -3.020363
2011-09-20 08:19:19 51°19.994 2°56.684 20.1066 0.061423 0.347016 -3.020363
2011-09-20 08:19:24 51°19.997 2°56.711 20.1378 0.061423 0.347009 -3.020363
2011-09-20 08:19:29 51°20 2°56.738 20.1411 0.061423 0.347016 -3.020363
2011-09-20 08:19:34 51°20.005 2°56.764 20.1516 0.061423 0.347016 -3.020363
2011-09-20 08:19:39 51°20.008 2°56.789 20.1121 0.061423 0.347022 -3.020363
2011-09-20 08:19:45 51°20.014 2°56.821 20.1239 0.061423 0.347016 -3.020363
2011-09-20 08:19:49 51°20.018 2°56.842 20.1432 0.061423 0.347016 -3.020363
2011-09-20 08:19:54 51°20.021 2°56.867 20.1417 0.061423 0.347016 -3.020363
2011-09-20 08:19:59 51°20.026 2°56.893 20.1302 0.061423 0.347016 -3.020363
2011-09-20 08:20:04 51°20.03 2°56.92 20.1156 0.061423 0.347016 -3.020363
2011-09-20 08:20:10 51°20.035 2°56.951 20.1512 0.061423 0.347009 -3.020363
2011-09-20 08:20:14 51°20.038 2°56.972 20.1576 0.061423 0.347022 -3.020363
2011-09-20 08:20:19 51°20.042 2°56.999 20.1265 0.061423 0.347022 -3.020363
2011-09-20 08:20:25 51°20.048 2°57.03 20.1494 0.061423 0.347016 -3.020363
2011-09-20 08:20:29 51°20.051 2°57.051 20.1542 0.061423 0.347016 -3.020363
2011-09-20 08:20:34 51°20.055 2°57.077 20.1515 0.061423 0.347016 -3.020363
2011-09-20 08:20:39 51°20.058 2°57.103 20.1148 0.061423 0.347022 -3.020363
2011-09-20 08:20:45 51°20.064 2°57.135 20.1525 0.061423 0.347016 -3.020363
2011-09-20 08:20:50 51°20.067 2°57.161 20.1545 0.061423 0.347016 -3.020363
2011-09-20 08:20:54 51°20.069 2°57.182 20.1832 0.061423 0.347016 -3.020363
2011-09-20 08:20:59 51°20.072 2°57.208 20.1578 0.061423 0.347022 -3.020363
2011-09-20 08:21:04 51°20.077 2°57.234 20.1644 0.061423 0.347022 -3.020363
2011-09-20 08:21:10 51°20.082 2°57.266 20.1773 0.061423 0.347022 -3.020363
2011-09-20 08:21:14 51°20.085 2°57.287 20.1473 0.061423 0.347022 -3.020363
2011-09-20 08:21:19 51°20.09 2°57.313 20.1799 0.061423 0.347022 -3.020363
2011-09-20 08:21:24 51°20.094 2°57.339 20.1923 0.061423 0.347016 -3.020363
2011-09-20 08:21:29 51°20.098 2°57.365 20.1655 0.061423 0.347029 -3.020363
2011-09-20 08:21:34 51°20.102 2°57.391 20.1257 0.061423 0.347029 -3.020363
2011-09-20 08:21:39 51°20.108 2°57.416 20.181 0.061423 0.347016 -3.020363
2011-09-20 08:21:44 51°20.111 2°57.442 20.1601 0.061423 0.347022 -3.020363
2011-09-20 08:21:49 51°20.115 2°57.468 20.1897 0.061423 0.347022 -3.020363
2011-09-20 08:21:54 51°20.119 2°57.495 20.1788 0.061423 0.347022 -3.020363
2011-09-20 08:21:59 51°20.123 2°57.521 20.1892 0.061423 0.347022 -3.020363
2011-09-20 08:22:05 51°20.128 2°57.551 20.1547 0.061423 0.347022 -3.020363
2011-09-20 08:22:09 51°20.132 2°57.571 20.1887 0.061423 0.347022 -3.020363
2011-09-20 08:22:14 51°20.135 2°57.597 20.1335 0.061423 0.347022 -3.020363
2011-09-20 08:22:19 51°20.14 2°57.623 20.1736 0.061423 0.347022 -3.020363
2011-09-20 08:22:24 51°20.143 2°57.649 20.1755 0.061423 0.347022 -3.020363
2011-09-20 08:22:30 51°20.148 2°57.68 20.1901 0.061423 0.347022 -3.020363
2011-09-20 08:22:34 51°20.15 2°57.701 20.1942 0.061423 0.347022 -3.020363
2011-09-20 08:22:39 51°20.153 2°57.728 20.2073 0.061423 0.347029 -3.020363
2011-09-20 08:22:45 51°20.157 2°57.759 20.1998 0.061423 0.347029 -3.020363
2011-09-20 08:22:49 51°20.16 2°57.78 20.2035 0.061423 0.347029 -3.020363
2011-09-20 08:22:54 51°20.165 2°57.805 20.1852 0.061423 0.347029 -3.020363
2011-09-20 08:22:59 51°20.169 2°57.831 20.1689 0.061423 0.347029 -3.020363
2011-09-20 08:23:05 51°20.175 2°57.862 20.1837 0.061423 0.347029 -3.020363
2011-09-20 08:23:10 51°20.18 2°57.887 20.1812 0.061423 0.347029 -3.020363
2011-09-20 08:23:14 51°20.184 2°57.907 20.2195 0.061423 0.347029 -3.020363
2011-09-20 08:23:19 51°20.189 2°57.933 20.1837 0.061423 0.347029 -3.020363
2011-09-20 08:23:24 51°20.194 2°57.958 20.1935 0.061423 0.347029 -3.020363
2011-09-20 08:23:29 51°20.199 2°57.984 20.1894 0.061423 0.347035 -3.020363
2011-09-20 08:23:34 51°20.204 2°58.009 20.1807 0.061423 0.347029 -3.020363
2011-09-20 08:23:39 51°20.209 2°58.035 20.1776 0.061423 0.347029 -3.020363
2011-09-20 08:23:44 51°20.214 2°58.06 20.1914 0.061423 0.347029 -3.020363
2011-09-20 08:23:49 51°20.218 2°58.086 20.1928 0.061423 0.347029 -3.020363
2011-09-20 08:23:54 51°20.223 2°58.111 20.1706 0.061423 0.347035 -3.020363
2011-09-20 08:23:59 51°20.228 2°58.136 20.2133 0.061423 0.347029 -3.020363
2011-09-20 08:24:04 51°20.232 2°58.161 20.1868 0.061423 0.347041 -3.020363
2011-09-20 08:24:09 51°20.237 2°58.187 20.1795 0.061423 0.347029 -3.020363
2011-09-20 08:24:14 51°20.242 2°58.213 20.2059 0.061423 0.347041 -3.020363
2011-09-20 08:24:19 51°20.247 2°58.24 20.1748 0.061423 0.347041 -3.020363
2011-09-20 08:24:25 51°20.253 2°58.272 20.1947 0.061423 0.347035 -3.020363
2011-09-20 08:24:29 51°20.257 2°58.292 20.2126 0.061423 0.347035 -3.020363
2011-09-20 08:24:34 51°20.261 2°58.318 20.2093 0.061423 0.347035 -3.020363
2011-09-20 08:24:39 51°20.265 2°58.345 20.2069 0.061423 0.347041 -3.020363
2011-09-20 08:24:45 51°20.27 2°58.378 20.2093 0.061423 0.347029 -3.020363
2011-09-20 08:24:50 51°20.274 2°58.404 20.2323 0.061423 0.347029 -3.020363
2011-09-20 08:24:54 51°20.277 2°58.425 20.2063 0.061423 0.347035 -3.020363
2011-09-20 08:24:59 51°20.281 2°58.451 20.1816 0.061423 0.347041 -3.020363
2011-09-20 08:25:05 51°20.286 2°58.481 20.2063 0.061423 0.347035 -3.020363
2011-09-20 08:25:09 51°20.289 2°58.501 20.2374 0.061423 0.347035 -3.020363
2011-09-20 08:25:14 51°20.292 2°58.527 20.2148 0.061423 0.347035 -3.020363
2011-09-20 08:25:19 51°20.296 2°58.554 20.2102 0.061423 0.347035 -3.020363
2011-09-20 08:25:24 51°20.3 2°58.579 20.2386 0.061423 0.347035 -3.020363
2011-09-20 08:25:30 51°20.306 2°58.609 20.231 0.061423 0.347035 -3.020363
2011-09-20 08:25:34 51°20.309 2°58.63 20.2362 0.061423 0.347041 -3.020363
2011-09-20 08:25:39 51°20.314 2°58.656 20.2157 0.061423 0.347041 -3.020363
2011-09-20 08:25:44 51°20.319 2°58.681 20.244 0.061423 0.347041 -3.020363
2011-09-20 08:25:50 51°20.325 2°58.711 20.2434 0.061423 0.347041 -3.020363
2011-09-20 08:25:54 51°20.329 2°58.732 20.2388 0.061423 0.347041 -3.020363
2011-09-20 08:25:59 51°20.334 2°58.757 20.2134 0.061423 0.347048 -3.020363
2011-09-20 08:26:04 51°20.34 2°58.782 20.2495 0.061423 0.347041 -3.020363
2011-09-20 08:26:09 51°20.343 2°58.808 20.1922 0.061423 0.347041 -3.020363
2011-09-20 08:26:14 51°20.349 2°58.833 20.2519 0.061423 0.347041 -3.020363
2011-09-20 08:26:19 51°20.353 2°58.858 20.2388 0.061423 0.347041 -3.020363
2011-09-20 08:26:25 51°20.359 2°58.888 20.2127 0.061423 0.347048 -3.020363
2011-09-20 08:26:29 51°20.363 2°58.908 20.1899 0.061423 0.347054 -3.020363
2011-09-20 08:26:34 51°20.368 2°58.933 20.2332 0.061423 0.347041 -3.020363
2011-09-20 08:26:39 51°20.372 2°58.959 20.2225 0.061423 0.347041 -3.020363
2011-09-20 08:26:44 51°20.376 2°58.984 20.2555 0.061423 0.347048 -3.020363
2011-09-20 08:26:50 51°20.382 2°59.015 20.2212 0.061423 0.347048 -3.020363
2011-09-20 08:26:54 51°20.386 2°59.035 20.2151 0.061423 0.347048 -3.020363
2011-09-20 08:26:59 51°20.39 2°59.061 20.21 0.061423 0.347041 -3.020363
2011-09-20 08:27:05 51°20.395 2°59.092 20.2289 0.061423 0.347035 -3.020363
2011-09-20 08:27:10 51°20.398 2°59.118 20.2326 0.061423 0.347041 -3.020363
2011-09-20 08:27:14 51°20.401 2°59.139 20.2624 0.061423 0.347041 -3.020363
2011-09-20 08:27:19 51°20.404 2°59.165 20.2538 0.061423 0.347041 -3.020363
2011-09-20 08:27:25 51°20.409 2°59.197 20.2394 0.061423 0.347048 -3.020363
2011-09-20 08:27:30 51°20.412 2°59.223 20.26 0.061423 0.347041 -3.020363
2011-09-20 08:27:34 51°20.414 2°59.244 20.2295 0.061423 0.347048 -3.020363
2011-09-20 08:27:39 51°20.418 2°59.27 20.2522 0.061423 0.347048 -3.020363
2011-09-20 08:27:44 51°20.422 2°59.297 20.2435 0.061423 0.347048 -3.020363
2011-09-20 08:27:50 51°20.426 2°59.328 20.255 0.061423 0.347048 -3.020363
2011-09-20 08:27:54 51°20.429 2°59.349 20.2611 0.061423 0.347041 -3.020363
2011-09-20 08:27:59 51°20.432 2°59.376 20.2273 0.061423 0.347054 -3.020363
2011-09-20 08:28:04 51°20.437 2°59.403 20.2603 0.061423 0.347048 -3.020363
2011-09-20 08:28:09 51°20.44 2°59.429 20.2637 0.061423 0.347048 -3.020363
2011-09-20 08:28:14 51°20.444 2°59.454 20.2663 0.061423 0.347054 -3.020363
2011-09-20 08:28:19 51°20.448 2°59.481 20.2569 0.061423 0.347054 -3.020363
2011-09-20 08:28:25 51°20.453 2°59.513 20.2563 0.061423 0.347054 -3.020363
2011-09-20 08:28:29 51°20.456 2°59.534 20.2416 0.061423 0.347048 -3.020363
2011-09-20 08:28:34 51°20.46 2°59.559 20.2982 0.061423 0.347041 -3.020363
2011-09-20 08:28:39 51°20.463 2°59.585 20.2731 0.061423 0.347054 -3.020363
2011-09-20 08:28:45 51°20.469 2°59.616 20.2487 0.061423 0.347054 -3.020363
2011-09-20 08:28:49 51°20.472 2°59.637 20.2915 0.061423 0.347054 -3.020363
2011-09-20 08:28:54 51°20.476 2°59.662 20.2813 0.061423 0.347054 -3.020363
2011-09-20 08:28:59 51°20.481 2°59.687 20.2787 0.061423 0.347054 -3.020363
2011-09-20 08:29:04 51°20.486 2°59.712 20.2785 0.061423 0.347061 -3.020363
2011-09-20 08:29:10 51°20.493 2°59.743 19.717 0.061423 0.347022 -3.020363
2011-09-20 08:29:14 51°20.498 2°59.763 17.963 0.497544 3.138882 -3.020363
2011-09-20 08:29:19 51°20.502 2°59.787 17.4807 0.497544 3.138882 -3.020363
2011-09-20 08:29:25 51°20.508 2°59.818 17.373 0.491061 3.092216 -3.020363
2011-09-20 08:29:29 51°20.512 2°59.839 17.1429 0.378191 2.329404 -3.020363
2011-09-20 08:29:34 51°20.517 2°59.864 16.978 1.258966 8.218356 -3.020363
2011-09-20 08:29:39 51°20.522 2°59.889 16.9633 2.294318 15.659507 -3.020363
2011-09-20 08:29:44 51°20.528 2°59.915 16.8259 2.574578 17.909017 -3.020363
2011-09-20 08:29:50 51°20.534 2°59.945 16.8273 2.574578 17.909017 -3.020363
2011-09-20 08:29:54 51°20.539 2°59.965 16.8624 3.276391 23.58953 -3.020363
2011-09-20 08:29:59 51°20.542 2°59.991 16.7529 3.973307 29.542025 -3.020363
2011-09-20 08:30:04 51°20.547 3°0.016 16.7625 4.249245 32.126184 -3.020363
2011-09-20 08:30:09 51°20.55 3°0.043 16.6909 4.334382 33.082451 -3.020363
2011-09-20 08:30:14 51°20.555 3°0.069 16.7056 4.373794 33.598256 -3.020363
2011-09-20 08:30:19 51°20.558 3°0.094 16.7027 4.373794 33.598256 -3.020363
2011-09-20 08:30:24 51°20.562 3°0.119 16.6883 4.38116 33.798853 -3.020363
2011-09-20 08:30:30 51°20.566 3°0.15 16.6743 4.38365 33.901344 -3.020363
2011-09-20 08:30:34 51°20.569 3°0.171 16.6891 4.390496 34.016959 -3.020363
2011-09-20 08:30:39 51°20.572 3°0.197 16.65 4.381474 33.99725 -3.020363
2011-09-20 08:30:44 51°20.575 3°0.222 16.666 4.381579 34.04935 -3.020363
2011-09-20 08:30:49 51°20.578 3°0.249 16.6451 4.381579 34.04935 -3.020363
2011-09-20 08:30:54 51°20.582 3°0.275 16.6431 4.38552 34.111709 -3.020363
2011-09-20 08:30:59 51°20.586 3°0.301 16.6255 4.383239 34.117229 -3.020363
2011-09-20 08:31:05 51°20.59 3°0.332 16.6165 4.381476 34.120411 -3.020363
2011-09-20 08:31:09 51°20.593 3°0.353 16.6287 4.379402 34.118825 -3.020363
2011-09-20 08:31:14 51°20.597 3°0.379 16.6269 4.37795 34.121291 -3.020363
2011-09-20 08:31:19 51°20.602 3°0.405 16.6143 4.37795 34.121291 -3.020363
2011-09-20 08:31:24 51°20.606 3°0.431 16.6193 4.376499 34.119632 -3.020363
2011-09-20 08:31:30 51°20.611 3°0.461 16.6105 4.377951 34.141936 -3.020363
2011-09-20 08:31:34 51°20.615 3°0.481 16.6131 4.271657 33.228415 -3.020363
2011-09-20 08:31:39 51°20.619 3°0.507 16.6078 4.374425 34.133889 -3.020363
2011-09-20 08:31:44 51°20.623 3°0.532 16.6111 4.362395 34.035752 -3.020363
2011-09-20 08:31:50 51°20.628 3°0.563 16.611 4.362395 34.035752 -3.020363
2011-09-20 08:31:54 51°20.631 3°0.583 16.5999 4.372662 34.128142 -3.020363
2011-09-20 08:31:59 51°20.634 3°0.609 16.6046 4.372247 34.129343 -3.020363
2011-09-20 08:32:04 51°20.638 3°0.634 16.5892 4.371833 34.132613 -3.020363
2011-09-20 08:32:09 51°20.642 3°0.661 16.5986 4.371418 34.133816 -3.020363